| time (UTC) | temp C | wind direction | speed KPH | gust KPH | rain 1hr cm | rain 24hr cm | rain mn cm | humidity % | barometer mb |
| 20260506235504 | 16 | 66 | 4.8 | 6.4 | 0.00 | 0.00 | 0.00 | 62 | 1016.3 |
| 20260506235402 | 16 | 66 | 4.8 | 8.0 | 0.00 | 0.00 | 0.00 | 62 | 1016.3 |
| 20260506235306 | 16 | 66 | 4.8 | 8.0 | 0.00 | 0.00 | 0.00 | 62 | 1016.3 |
| 20260506235202 | 16 | 66 | 4.8 | 8.0 | 0.00 | 0.00 | 0.00 | 62 | 1016.3 |
| 20260506235102 | 16 | 66 | 4.8 | 8.0 | 0.00 | 0.00 | 0.00 | 62 | 1016.3 |
| 20260506235004 | 16 | 66 | 4.8 | 8.0 | 0.00 | 0.00 | 0.00 | 62 | 1016.3 |
| 20260506234902 | 16 | 66 | 4.8 | 8.0 | 0.00 | 0.00 | 0.00 | 62 | 1016.4 |
| 20260506234804 | 16 | 76 | 6.4 | 8.0 | 0.00 | 0.00 | 0.00 | 62 | 1016.4 |
| 20260506234703 | 16 | 74 | 6.4 | 8.0 | 0.00 | 0.00 | 0.00 | 62 | 1016.4 |
| 20260506234602 | 16 | 73 | 6.4 | 9.7 | 0.00 | 0.00 | 0.00 | 62 | 1016.4 |
| 20260506234504 | 16 | 73 | 6.4 | 11.3 | 0.00 | 0.00 | 0.00 | 62 | 1016.4 |
| 20260506234404 | 16 | 76 | 6.4 | 11.3 | 0.00 | 0.00 | 0.00 | 61 | 1016.4 |
| 20260506234304 | 16 | 72 | 6.4 | 11.3 | 0.00 | 0.00 | 0.00 | 61 | 1016.4 |
| 20260506234202 | 16 | 76 | 6.4 | 11.3 | 0.00 | 0.00 | 0.00 | 61 | 1016.4 |
| 20260506234104 | 16 | 74 | 6.4 | 11.3 | 0.00 | 0.00 | 0.00 | 61 | 1016.5 |
| 20260506234002 | 16 | 70 | 6.4 | 11.3 | 0.00 | 0.00 | 0.00 | 61 | 1016.5 |
| 20260506233901 | 16 | 76 | 8.0 | 11.3 | 0.00 | 0.00 | 0.00 | 61 | 1016.5 |
| 20260506233805 | 16 | 82 | 8.0 | 11.3 | 0.00 | 0.00 | 0.00 | 61 | 1016.5 |
| 20260506233702 | 16 | 81 | 8.0 | 11.3 | 0.00 | 0.00 | 0.00 | 60 | 1016.5 |
| 20260506233603 | 16 | 79 | 8.0 | 12.9 | 0.00 | 0.00 | 0.00 | 60 | 1016.6 |
| 20260506233504 | 16 | 73 | 8.0 | 12.9 | 0.00 | 0.00 | 0.00 | 60 | 1016.5 |
| 20260506233402 | 16 | 72 | 8.0 | 12.9 | 0.00 | 0.00 | 0.00 | 60 | 1016.6 |
| 20260506233303 | 16 | 74 | 8.0 | 12.9 | 0.00 | 0.00 | 0.00 | 60 | 1016.5 |
| 20260506233204 | 16 | 71 | 9.7 | 12.9 | 0.00 | 0.00 | 0.00 | 59 | 1016.6 |
| 20260506233103 | 16 | 71 | 9.7 | 12.9 | 0.00 | 0.00 | 0.00 | 59 | 1016.5 |
| 20260506233002 | 16 | 72 | 9.7 | 12.9 | 0.00 | 0.00 | 0.00 | 59 | 1016.6 |
| 20260506232902 | 16 | 75 | 9.7 | 12.9 | 0.00 | 0.00 | 0.00 | 59 | 1016.6 |
| 20260506232804 | 16 | 71 | 9.7 | 12.9 | 0.00 | 0.00 | 0.00 | 58 | 1016.6 |
| 20260506232702 | 16 | 74 | 9.7 | 12.9 | 0.00 | 0.00 | 0.00 | 58 | 1016.6 |
| 20260506232602 | 16 | 74 | 9.7 | 12.9 | 0.00 | 0.00 | 0.00 | 58 | 1016.6 |
| 20260506232506 | 16 | 72 | 9.7 | 12.9 | 0.00 | 0.00 | 0.00 | 58 | 1016.6 |
| 20260506232402 | 16 | 81 | 9.7 | 12.9 | 0.00 | 0.00 | 0.00 | 58 | 1016.6 |
| 20260506232306 | 16 | 68 | 8.0 | 12.9 | 0.00 | 0.00 | 0.00 | 58 | 1016.7 |
| 20260506232204 | 16 | 67 | 8.0 | 12.9 | 0.00 | 0.00 | 0.00 | 58 | 1016.7 |
| 20260506232102 | 16 | 71 | 8.0 | 12.9 | 0.00 | 0.00 | 0.00 | 58 | 1016.7 |
| 20260506232004 | 16 | 72 | 8.0 | 12.9 | 0.00 | 0.00 | 0.00 | 59 | 1016.7 |
| 20260506231902 | 16 | 76 | 6.4 | 12.9 | 0.00 | 0.00 | 0.00 | 59 | 1016.7 |
| 20260506231805 | 16 | 74 | 6.4 | 12.9 | 0.00 | 0.00 | 0.00 | 59 | 1016.7 |
| 20260506231704 | 16 | 84 | 4.8 | 12.9 | 0.00 | 0.00 | 0.00 | 59 | 1016.7 |
| 20260506231602 | 16 | 72 | 4.8 | 9.7 | 0.00 | 0.00 | 0.00 | 59 | 1016.7 |
| 20260506231503 | 16 | 74 | 4.8 | 9.7 | 0.00 | 0.00 | 0.00 | 60 | 1016.7 |
| 20260506231404 | 16 | 70 | 4.8 | 11.3 | 0.00 | 0.00 | 0.00 | 61 | 1016.8 |
| 20260506231303 | 16 | 70 | 6.4 | 12.9 | 0.00 | 0.00 | 0.00 | 61 | 1016.8 |
| 20260506231202 | 16 | 72 | 6.4 | 12.9 | 0.00 | 0.00 | 0.00 | 61 | 1016.8 |
| 20260506231103 | 16 | 76 | 6.4 | 12.9 | 0.00 | 0.00 | 0.00 | 61 | 1016.8 |
| 20260506231004 | 16 | 66 | 6.4 | 12.9 | 0.00 | 0.00 | 0.00 | 61 | 1016.8 |
| 20260506230905 | 16 | 64 | 8.0 | 12.9 | 0.00 | 0.00 | 0.00 | 61 | 1016.8 |
| 20260506230804 | 16 | 68 | 8.0 | 12.9 | 0.00 | 0.00 | 0.00 | 61 | 1016.9 |
| 20260506230702 | 16 | 72 | 8.0 | 12.9 | 0.00 | 0.00 | 0.00 | 61 | 1016.9 |
| 20260506230604 | 16 | 71 | 8.0 | 12.9 | 0.00 | 0.00 | 0.00 | 61 | 1016.9 |
| 20260506230502 | 16 | 73 | 8.0 | 12.9 | 0.00 | 0.00 | 0.00 | 61 | 1016.9 |
| 20260506230402 | 16 | 72 | 8.0 | 12.9 | 0.00 | 0.00 | 0.00 | 62 | 1016.9 |
| 20260506230302 | 16 | 72 | 6.4 | 12.9 | 0.00 | 0.00 | 0.00 | 63 | 1016.9 |
| 20260506230203 | 16 | 89 | 6.4 | 11.3 | 0.00 | 0.00 | 0.00 | 63 | 1017.0 |
| 20260506230105 | 16 | 76 | 6.4 | 11.3 | 0.00 | 0.00 | 0.00 | 64 | 1017.0 |
| 20260506230003 | 16 | 76 | 4.8 | 11.3 | 0.00 | 0.00 | 0.00 | 64 | 1017.0 |
| 20260506225902 | 16 | 70 | 4.8 | 11.3 | 0.00 | 0.00 | 0.00 | 65 | 1017.0 |
| 20260506225805 | 16 | 75 | 4.8 | 11.3 | 0.00 | 0.00 | 0.00 | 65 | 1017.0 |
| 20260506225702 | 16 | 72 | 4.8 | 9.7 | 0.00 | 0.00 | 0.00 | 66 | 1017.0 |
| 20260506225602 | 16 | 81 | 3.2 | 9.7 | 0.00 | 0.00 | 0.00 | 67 | 1017.1 |
| 20260506225504 | 16 | 55 | 3.2 | 6.4 | 0.00 | 0.00 | 0.00 | 68 | 1017.0 |
| 20260506225403 | 17 | 68 | 3.2 | 6.4 | 0.00 | 0.00 | 0.00 | 68 | 1017.1 |
| 20260506225306 | 17 | 76 | 3.2 | 6.4 | 0.00 | 0.00 | 0.00 | 68 | 1017.0 |
| 20260506225201 | 17 | 78 | 3.2 | 6.4 | 0.00 | 0.00 | 0.00 | 69 | 1017.1 |
| 20260506225102 | 17 | 79 | 4.8 | 6.4 | 0.00 | 0.00 | 0.00 | 69 | 1017.1 |
| 20260506225004 | 17 | 79 | 4.8 | 8.0 | 0.00 | 0.00 | 0.00 | 69 | 1017.1 |
| 20260506224903 | 17 | 79 | 4.8 | 8.0 | 0.00 | 0.00 | 0.00 | 69 | 1017.1 |
| 20260506224805 | 17 | 79 | 4.8 | 8.0 | 0.00 | 0.00 | 0.00 | 69 | 1017.2 |
| 20260506224702 | 17 | 81 | 4.8 | 8.0 | 0.00 | 0.00 | 0.00 | 69 | 1017.1 |
| 20260506224604 | 17 | 79 | 4.8 | 8.0 | 0.00 | 0.00 | 0.00 | 69 | 1017.1 |
| 20260506224504 | 17 | 79 | 4.8 | 8.0 | 0.00 | 0.00 | 0.00 | 69 | 1017.1 |
| 20260506224403 | 17 | 79 | 4.8 | 8.0 | 0.00 | 0.00 | 0.00 | 69 | 1017.2 |
| 20260506224304 | 17 | 70 | 4.8 | 8.0 | 0.00 | 0.00 | 0.00 | 69 | 1017.2 |
| 20260506224204 | 17 | 70 | 4.8 | 8.0 | 0.00 | 0.00 | 0.00 | 68 | 1017.2 |
| 20260506224103 | 17 | 80 | 4.8 | 8.0 | 0.00 | 0.00 | 0.00 | 68 | 1017.2 |
| 20260506224005 | 17 | 75 | 3.2 | 8.0 | 0.00 | 0.00 | 0.00 | 68 | 1017.2 |
| 20260506223901 | 17 | 81 | 3.2 | 8.0 | 0.00 | 0.00 | 0.00 | 67 | 1017.3 |
| 20260506223800 | 17 | 77 | 3.2 | 8.0 | 0.00 | 0.00 | 0.00 | 67 | 1017.3 |
| 20260506223701 | 17 | 79 | 3.2 | 8.0 | 0.00 | 0.00 | 0.00 | 67 | 1017.4 |
| 20260506223600 | 17 | 78 | 3.2 | 8.0 | 0.00 | 0.00 | 0.00 | 67 | 1017.2 |
| 20260506223502 | 17 | 74 | 3.2 | 6.4 | 0.00 | 0.00 | 0.00 | 66 | 1017.2 |
| 20260506223400 | 17 | 80 | 3.2 | 6.4 | 0.00 | 0.00 | 0.00 | 66 | 1017.3 |
| 20260506223302 | 17 | 79 | 3.2 | 6.4 | 0.00 | 0.00 | 0.00 | 66 | 1017.3 |
| 20260506223200 | 17 | 79 | 3.2 | 6.4 | 0.00 | 0.00 | 0.00 | 65 | 1017.3 |
| 20260506223102 | 17 | 79 | 3.2 | 6.4 | 0.00 | 0.00 | 0.00 | 65 | 1017.4 |
| 20260506222959 | 17 | 79 | 3.2 | 8.0 | 0.00 | 0.00 | 0.00 | 65 | 1017.4 |
| 20260506222901 | 17 | 78 | 3.2 | 8.0 | 0.00 | 0.00 | 0.00 | 65 | 1017.2 |
| 20260506222800 | 17 | 78 | 3.2 | 8.0 | 0.00 | 0.00 | 0.00 | 64 | 1017.3 |
| 20260506222700 | 17 | 75 | 3.2 | 8.0 | 0.00 | 0.00 | 0.00 | 64 | 1017.3 |
| 20260506222600 | 17 | 75 | 3.2 | 8.0 | 0.00 | 0.00 | 0.00 | 64 | 1017.3 |
| 20260506222501 | 17 | 76 | 3.2 | 8.0 | 0.00 | 0.00 | 0.00 | 63 | 1017.3 |
| 20260506222359 | 17 | 74 | 3.2 | 8.0 | 0.00 | 0.00 | 0.00 | 62 | 1017.3 |
| 20260506222306 | 17 | 72 | 1.6 | 8.0 | 0.00 | 0.00 | 0.00 | 62 | 1017.3 |
| 20260506222200 | 17 | 76 | 1.6 | 8.0 | 0.00 | 0.00 | 0.00 | 61 | 1017.3 |
| 20260506222102 | 17 | 76 | 1.6 | 8.0 | 0.00 | 0.00 | 0.00 | 61 | 1017.2 |
| 20260506221956 | 17 | 81 | 1.6 | 6.4 | 0.00 | 0.00 | 0.00 | 60 | 1017.2 |
| 20260506221858 | 17 | 80 | 1.6 | 4.8 | 0.00 | 0.00 | 0.00 | 60 | 1017.3 |
| 20260506221756 | 17 | 81 | 1.6 | 3.2 | 0.00 | 0.00 | 0.00 | 60 | 1017.3 |
| 20260506221658 | 17 | 80 | 1.6 | 3.2 | 0.00 | 0.00 | 0.00 | 59 | 1017.3 |
| 20260506221558 | 17 | 80 | 1.6 | 4.8 | 0.00 | 0.00 | 0.00 | 59 | 1017.3 |
| 20260506221457 | 17 | 80 | 1.6 | 4.8 | 0.00 | 0.00 | 0.00 | 59 | 1017.3 |
| 20260506221357 | 17 | 80 | 1.6 | 4.8 | 0.00 | 0.00 | 0.00 | 58 | 1017.3 |
| 20260506221300 | 17 | 80 | 1.6 | 4.8 | 0.00 | 0.00 | 0.00 | 58 | 1017.3 |
| 20260506221156 | 17 | 80 | 3.2 | 6.4 | 0.00 | 0.00 | 0.00 | 58 | 1017.3 |
| 20260506221058 | 17 | 80 | 3.2 | 8.0 | 0.00 | 0.00 | 0.00 | 58 | 1017.2 |
| 20260506220957 | 17 | 80 | 3.2 | 8.0 | 0.00 | 0.00 | 0.00 | 58 | 1017.3 |
| 20260506220857 | 17 | 80 | 3.2 | 8.0 | 0.00 | 0.00 | 0.00 | 58 | 1017.3 |
| 20260506220800 | 17 | 80 | 3.2 | 8.0 | 0.00 | 0.00 | 0.00 | 58 | 1017.2 |
| 20260506220656 | 17 | 80 | 3.2 | 8.0 | 0.00 | 0.00 | 0.00 | 58 | 1017.3 |
| 20260506220557 | 17 | 79 | 4.8 | 8.0 | 0.00 | 0.00 | 0.00 | 58 | 1017.3 |
| 20260506220455 | 17 | 79 | 4.8 | 8.0 | 0.00 | 0.00 | 0.00 | 58 | 1017.2 |
| 20260506220357 | 17 | 79 | 4.8 | 8.0 | 0.00 | 0.00 | 0.00 | 58 | 1017.2 |
| 20260506220300 | 17 | 80 | 4.8 | 8.0 | 0.00 | 0.00 | 0.00 | 58 | 1017.2 |
| 20260506220157 | 17 | 80 | 4.8 | 8.0 | 0.00 | 0.00 | 0.00 | 58 | 1017.2 |
| 20260506220054 | 17 | 82 | 4.8 | 8.0 | 0.00 | 0.00 | 0.00 | 58 | 1017.2 |
| 20260506215953 | 17 | 79 | 4.8 | 8.0 | 0.00 | 0.00 | 0.00 | 58 | 1017.2 |
| 20260506215852 | 17 | 79 | 6.4 | 8.0 | 0.00 | 0.00 | 0.00 | 58 | 1017.2 |
| 20260506215755 | 17 | 81 | 6.4 | 8.0 | 0.00 | 0.00 | 0.00 | 58 | 1017.1 |
| 20260506215652 | 17 | 78 | 6.4 | 8.0 | 0.00 | 0.00 | 0.00 | 58 | 1017.1 |
| 20260506215552 | 17 | 79 | 4.8 | 8.0 | 0.00 | 0.00 | 0.00 | 58 | 1017.1 |
| 20260506215452 | 17 | 72 | 4.8 | 8.0 | 0.00 | 0.00 | 0.00 | 58 | 1017.1 |
| 20260506215354 | 17 | 88 | 6.4 | 8.0 | 0.00 | 0.00 | 0.00 | 58 | 1017.2 |
| 20260506215256 | 17 | 75 | 4.8 | 11.3 | 0.00 | 0.00 | 0.00 | 58 | 1017.2 |
| 20260506215208 | 17 | 76 | 4.8 | 11.3 | 0.00 | 0.00 | 0.00 | 58 | 1017.2 |
| 20260506215053 | 17 | 76 | 4.8 | 11.3 | 0.00 | 0.00 | 0.00 | 58 | 1017.2 |
| 20260506214951 | 17 | 76 | 4.8 | 11.3 | 0.00 | 0.00 | 0.00 | 58 | 1017.2 |
| 20260506214852 | 17 | 79 | 4.8 | 11.3 | 0.00 | 0.00 | 0.00 | 58 | 1017.2 |
| 20260506214752 | 17 | 72 | 4.8 | 11.3 | 0.00 | 0.00 | 0.00 | 58 | 1017.2 |
| 20260506214652 | 17 | 74 | 4.8 | 11.3 | 0.00 | 0.00 | 0.00 | 58 | 1017.2 |
| 20260506214552 | 17 | 79 | 4.8 | 11.3 | 0.00 | 0.00 | 0.00 | 58 | 1017.2 |
| 20260506214446 | 17 | 76 | 4.8 | 11.3 | 0.00 | 0.00 | 0.00 | 58 | 1017.2 |
| 20260506214345 | 17 | 77 | 4.8 | 11.3 | 0.00 | 0.00 | 0.00 | 58 | 1017.2 |
| 20260506214248 | 17 | 70 | 4.8 | 8.0 | 0.00 | 0.00 | 0.00 | 58 | 1017.2 |
| 20260506214143 | 17 | 79 | 4.8 | 8.0 | 0.00 | 0.00 | 0.00 | 58 | 1017.3 |
| 20260506213940 | 17 | 76 | 3.2 | 8.0 | 0.00 | 0.00 | 0.00 | 58 | 1017.2 |
| 20260506213840 | 17 | 74 | 3.2 | 8.0 | 0.00 | 0.00 | 0.00 | 58 | 1017.2 |
| 20260506213744 | 17 | 75 | 4.8 | 8.0 | 0.00 | 0.00 | 0.00 | 58 | 1017.2 |
| 20260506213638 | 17 | 74 | 4.8 | 8.0 | 0.00 | 0.00 | 0.00 | 58 | 1017.3 |
| 20260506213537 | 17 | 72 | 3.2 | 8.0 | 0.00 | 0.00 | 0.00 | 58 | 1017.2 |
| 20260506213432 | 17 | 76 | 3.2 | 6.4 | 0.00 | 0.00 | 0.00 | 58 | 1017.2 |
| 20260506213331 | 17 | 79 | 3.2 | 6.4 | 0.00 | 0.00 | 0.00 | 58 | 1017.3 |
| 20260506213232 | 17 | 84 | 3.2 | 6.4 | 0.00 | 0.00 | 0.00 | 59 | 1017.2 |
| 20260506213131 | 17 | 79 | 3.2 | 8.0 | 0.00 | 0.00 | 0.00 | 59 | 1017.3 |
| 20260506213032 | 17 | 76 | 3.2 | 8.0 | 0.00 | 0.00 | 0.00 | 59 | 1017.3 |
| 20260506212936 | 17 | 78 | 3.2 | 8.0 | 0.00 | 0.00 | 0.00 | 59 | 1017.3 |
| 20260506212831 | 17 | 76 | 3.2 | 8.0 | 0.00 | 0.00 | 0.00 | 59 | 1017.3 |
| 20260506212732 | 17 | 76 | 3.2 | 8.0 | 0.00 | 0.00 | 0.00 | 59 | 1017.3 |
| 20260506212631 | 17 | 76 | 3.2 | 8.0 | 0.00 | 0.00 | 0.00 | 59 | 1017.4 |
| 20260506212532 | 17 | 76 | 3.2 | 8.0 | 0.00 | 0.00 | 0.00 | 59 | 1017.3 |
| 20260506212433 | 17 | 75 | 3.2 | 8.0 | 0.00 | 0.00 | 0.00 | 59 | 1017.4 |
| 20260506212331 | 17 | 77 | 3.2 | 8.0 | 0.00 | 0.00 | 0.00 | 59 | 1017.4 |
| 20260506212237 | 17 | 74 | 3.2 | 8.0 | 0.00 | 0.00 | 0.00 | 59 | 1017.4 |
| 20260506212131 | 17 | 79 | 3.2 | 6.4 | 0.00 | 0.00 | 0.00 | 59 | 1017.4 |
| 20260506212031 | 17 | 77 | 3.2 | 6.4 | 0.00 | 0.00 | 0.00 | 60 | 1017.4 |
| 20260506211934 | 17 | 79 | 3.2 | 8.0 | 0.00 | 0.00 | 0.00 | 60 | 1017.4 |
| 20260506211830 | 17 | 80 | 4.8 | 8.0 | 0.00 | 0.00 | 0.00 | 60 | 1017.4 |
| 20260506211736 | 17 | 81 | 4.8 | 9.7 | 0.00 | 0.00 | 0.00 | 60 | 1017.4 |
| 20260506211632 | 17 | 74 | 4.8 | 11.3 | 0.00 | 0.00 | 0.00 | 60 | 1017.4 |
| 20260506211530 | 17 | 82 | 4.8 | 11.3 | 0.00 | 0.00 | 0.00 | 60 | 1017.4 |
| 20260506211434 | 17 | 81 | 4.8 | 11.3 | 0.00 | 0.00 | 0.00 | 60 | 1017.4 |
| 20260506211332 | 17 | 84 | 6.4 | 11.3 | 0.00 | 0.00 | 0.00 | 60 | 1017.4 |
| 20260506211231 | 17 | 99 | 6.4 | 11.3 | 0.00 | 0.00 | 0.00 | 60 | 1017.4 |
| 20260506211132 | 17 | 83 | 6.4 | 11.3 | 0.00 | 0.00 | 0.00 | 61 | 1017.4 |
| 20260506211031 | 17 | 85 | 6.4 | 11.3 | 0.00 | 0.00 | 0.00 | 61 | 1017.4 |
| 20260506210936 | 17 | 79 | 6.4 | 11.3 | 0.00 | 0.00 | 0.00 | 61 | 1017.3 |
| 20260506210831 | 17 | 79 | 6.4 | 11.3 | 0.00 | 0.00 | 0.00 | 61 | 1017.3 |
| 20260506210732 | 17 | 83 | 6.4 | 11.3 | 0.00 | 0.00 | 0.00 | 61 | 1017.4 |
| 20260506210632 | 17 | 81 | 4.8 | 8.0 | 0.00 | 0.00 | 0.00 | 61 | 1017.4 |
| 20260506210531 | 17 | 81 | 4.8 | 8.0 | 0.00 | 0.00 | 0.00 | 61 | 1017.4 |
| 20260506210433 | 17 | 79 | 4.8 | 8.0 | 0.00 | 0.00 | 0.00 | 61 | 1017.3 |
| 20260506210332 | 17 | 80 | 4.8 | 8.0 | 0.00 | 0.00 | 0.00 | 61 | 1017.4 |
| 20260506210230 | 17 | 75 | 4.8 | 8.0 | 0.00 | 0.00 | 0.00 | 61 | 1017.3 |
| 20260506210132 | 17 | 83 | 4.8 | 8.0 | 0.00 | 0.00 | 0.00 | 61 | 1017.3 |
| 20260506210030 | 17 | 71 | 4.8 | 8.0 | 0.00 | 0.00 | 0.00 | 61 | 1017.4 |
| 20260506205933 | 17 | 78 | 4.8 | 8.0 | 0.00 | 0.00 | 0.00 | 61 | 1017.3 |
| 20260506205831 | 17 | 76 | 4.8 | 8.0 | 0.00 | 0.00 | 0.00 | 61 | 1017.4 |
| 20260506205730 | 17 | 76 | 4.8 | 8.0 | 0.00 | 0.00 | 0.00 | 61 | 1017.4 |
| 20260506205630 | 17 | 73 | 4.8 | 8.0 | 0.00 | 0.00 | 0.00 | 61 | 1017.4 |
| 20260506205531 | 17 | 67 | 4.8 | 8.0 | 0.00 | 0.00 | 0.00 | 61 | 1017.4 |
| 20260506205431 | 17 | 76 | 4.8 | 8.0 | 0.00 | 0.00 | 0.00 | 61 | 1017.4 |
| 20260506205330 | 17 | 77 | 4.8 | 8.0 | 0.00 | 0.00 | 0.00 | 61 | 1017.4 |
| 20260506205232 | 17 | 81 | 4.8 | 8.0 | 0.00 | 0.00 | 0.00 | 60 | 1017.4 |
| 20260506205131 | 17 | 76 | 4.8 | 8.0 | 0.00 | 0.00 | 0.00 | 60 | 1017.4 |
| 20260506205032 | 17 | 77 | 4.8 | 8.0 | 0.00 | 0.00 | 0.00 | 60 | 1017.4 |
| 20260506204934 | 17 | 75 | 4.8 | 8.0 | 0.00 | 0.00 | 0.00 | 60 | 1017.4 |
| 20260506204832 | 17 | 78 | 4.8 | 8.0 | 0.00 | 0.00 | 0.00 | 60 | 1017.4 |
| 20260506204733 | 17 | 79 | 4.8 | 8.0 | 0.00 | 0.00 | 0.00 | 60 | 1017.4 |
| 20260506204630 | 17 | 74 | 4.8 | 8.0 | 0.00 | 0.00 | 0.00 | 60 | 1017.4 |
| 20260506204531 | 17 | 72 | 4.8 | 8.0 | 0.00 | 0.00 | 0.00 | 60 | 1017.4 |
| 20260506204433 | 17 | 72 | 4.8 | 8.0 | 0.00 | 0.00 | 0.00 | 60 | 1017.4 |
| 20260506204332 | 17 | 78 | 4.8 | 8.0 | 0.00 | 0.00 | 0.00 | 60 | 1017.4 |
| 20260506204231 | 17 | 80 | 4.8 | 8.0 | 0.00 | 0.00 | 0.00 | 59 | 1017.4 |
| 20260506204130 | 17 | 78 | 4.8 | 8.0 | 0.00 | 0.00 | 0.00 | 59 | 1017.4 |
| 20260506204032 | 17 | 75 | 4.8 | 8.0 | 0.00 | 0.00 | 0.00 | 59 | 1017.4 |
| 20260506203932 | 17 | 79 | 4.8 | 8.0 | 0.00 | 0.00 | 0.00 | 59 | 1017.3 |
| 20260506203834 | 17 | 80 | 4.8 | 8.0 | 0.00 | 0.00 | 0.00 | 59 | 1017.4 |
| 20260506203731 | 17 | 84 | 4.8 | 8.0 | 0.00 | 0.00 | 0.00 | 59 | 1017.4 |
| 20260506203630 | 17 | 65 | 4.8 | 11.3 | 0.00 | 0.00 | 0.00 | 59 | 1017.4 |
| 20260506203532 | 17 | 78 | 4.8 | 12.9 | 0.00 | 0.00 | 0.00 | 59 | 1017.4 |
| 20260506203432 | 17 | 78 | 4.8 | 12.9 | 0.00 | 0.00 | 0.00 | 59 | 1017.4 |
| 20260506203331 | 17 | 75 | 6.4 | 12.9 | 0.00 | 0.00 | 0.00 | 59 | 1017.4 |
| 20260506203233 | 17 | 72 | 6.4 | 12.9 | 0.00 | 0.00 | 0.00 | 59 | 1017.4 |
| 20260506203130 | 17 | 66 | 6.4 | 14.5 | 0.00 | 0.00 | 0.00 | 59 | 1017.4 |
| 20260506203030 | 17 | 81 | 8.0 | 14.5 | 0.00 | 0.00 | 0.00 | 59 | 1017.4 |
| 20260506202932 | 17 | 79 | 8.0 | 14.5 | 0.00 | 0.00 | 0.00 | 59 | 1017.4 |
| 20260506202833 | 17 | 79 | 8.0 | 14.5 | 0.00 | 0.00 | 0.00 | 59 | 1017.3 |
| 20260506202731 | 17 | 72 | 8.0 | 14.5 | 0.00 | 0.00 | 0.00 | 59 | 1017.2 |
| 20260506202631 | 17 | 79 | 8.0 | 14.5 | 0.00 | 0.00 | 0.00 | 59 | 1017.3 |
| 20260506202530 | 17 | 79 | 8.0 | 14.5 | 0.00 | 0.00 | 0.00 | 58 | 1017.3 |
| 20260506202432 | 17 | 84 | 8.0 | 14.5 | 0.00 | 0.00 | 0.00 | 58 | 1017.3 |
| 20260506202330 | 17 | 63 | 8.0 | 14.5 | 0.00 | 0.00 | 0.00 | 58 | 1017.3 |
| 20260506202232 | 17 | 78 | 8.0 | 14.5 | 0.00 | 0.00 | 0.00 | 57 | 1017.3 |
| 20260506202130 | 17 | 83 | 8.0 | 12.9 | 0.00 | 0.00 | 0.00 | 57 | 1017.4 |
| 20260506202031 | 17 | 81 | 8.0 | 14.5 | 0.00 | 0.00 | 0.00 | 57 | 1017.3 |
| 20260506201948 | 17 | 101 | 8.0 | 14.5 | 0.00 | 0.00 | 0.00 | 56 | 1017.4 |
| 20260506201831 | 17 | 94 | 8.0 | 14.5 | 0.00 | 0.00 | 0.00 | 56 | 1017.3 |
| 20260506201730 | 17 | 78 | 8.0 | 14.5 | 0.00 | 0.00 | 0.00 | 56 | 1017.3 |
| 20260506201630 | 17 | 89 | 8.0 | 14.5 | 0.00 | 0.00 | 0.00 | 56 | 1017.4 |
| 20260506201530 | 17 | 71 | 6.4 | 14.5 | 0.00 | 0.00 | 0.00 | 55 | 1017.3 |
| 20260506201432 | 17 | 85 | 6.4 | 14.5 | 0.00 | 0.00 | 0.00 | 55 | 1017.3 |
| 20260506201331 | 17 | 92 | 6.4 | 14.5 | 0.00 | 0.00 | 0.00 | 55 | 1017.3 |
| 20260506201230 | 17 | 85 | 6.4 | 14.5 | 0.00 | 0.00 | 0.00 | 55 | 1017.3 |
| 20260506201131 | 17 | 92 | 6.4 | 14.5 | 0.00 | 0.00 | 0.00 | 54 | 1017.3 |
| 20260506201030 | 17 | 83 | 6.4 | 12.9 | 0.00 | 0.00 | 0.00 | 54 | 1017.2 |
| 20260506200930 | 17 | 81 | 4.8 | 12.9 | 0.00 | 0.00 | 0.00 | 55 | 1017.3 |
| 20260506200824 | 17 | 76 | 4.8 | 11.3 | 0.00 | 0.00 | 0.00 | 55 | 1017.3 |
| 20260506200723 | 17 | 72 | 4.8 | 11.3 | 0.00 | 0.00 | 0.00 | 55 | 1017.2 |
| 20260506200623 | 17 | 72 | 6.4 | 11.3 | 0.00 | 0.00 | 0.00 | 55 | 1017.3 |
| 20260506200524 | 17 | 76 | 6.4 | 11.3 | 0.00 | 0.00 | 0.00 | 55 | 1017.3 |
| 20260506200424 | 17 | 81 | 4.8 | 11.3 | 0.00 | 0.00 | 0.00 | 55 | 1017.3 |
| 20260506200316 | 17 | 71 | 4.8 | 11.3 | 0.00 | 0.00 | 0.00 | 55 | 1017.3 |
| 20260506200217 | 17 | 82 | 4.8 | 11.3 | 0.00 | 0.00 | 0.00 | 55 | 1017.3 |
| 20260506200116 | 17 | 74 | 4.8 | 11.3 | 0.00 | 0.00 | 0.00 | 55 | 1017.2 |
| 20260506200018 | 17 | 81 | 4.8 | 11.3 | 0.00 | 0.00 | 0.00 | 55 | 1017.2 |
| 20260506195918 | 17 | 62 | 4.8 | 11.3 | 0.00 | 0.00 | 0.00 | 55 | 1017.2 |
| 20260506195814 | 17 | 72 | 4.8 | 8.0 | 0.00 | 0.00 | 0.00 | 55 | 1017.2 |
| 20260506195713 | 17 | 72 | 4.8 | 8.0 | 0.00 | 0.00 | 0.00 | 54 | 1017.2 |
| 20260506195612 | 17 | 77 | 4.8 | 8.0 | 0.00 | 0.00 | 0.00 | 54 | 1017.2 |
| 20260506195514 | 17 | 77 | 4.8 | 8.0 | 0.00 | 0.00 | 0.00 | 54 | 1017.2 |
| 20260506195412 | 17 | 72 | 4.8 | 8.0 | 0.00 | 0.00 | 0.00 | 54 | 1017.1 |
| 20260506195312 | 17 | 75 | 3.2 | 8.0 | 0.00 | 0.00 | 0.00 | 54 | 1017.1 |
| 20260506195213 | 17 | 74 | 3.2 | 8.0 | 0.00 | 0.00 | 0.00 | 54 | 1017.1 |
| 20260506195112 | 17 | 71 | 3.2 | 6.4 | 0.00 | 0.00 | 0.00 | 54 | 1017.1 |
| 20260506195012 | 17 | 72 | 3.2 | 6.4 | 0.00 | 0.00 | 0.00 | 54 | 1017.1 |
| 20260506194912 | 17 | 70 | 3.2 | 6.4 | 0.00 | 0.00 | 0.00 | 54 | 1017.2 |
| 20260506194813 | 17 | 76 | 3.2 | 6.4 | 0.00 | 0.00 | 0.00 | 54 | 1017.2 |
| 20260506194713 | 17 | 85 | 3.2 | 6.4 | 0.00 | 0.00 | 0.00 | 54 | 1017.1 |
| 20260506194616 | 17 | 85 | 3.2 | 6.4 | 0.00 | 0.00 | 0.00 | 54 | 1017.2 |
| 20260506194526 | 17 | 85 | 1.6 | 6.4 | 0.00 | 0.00 | 0.00 | 54 | 1017.2 |
| 20260506194414 | 17 | 82 | 1.6 | 6.4 | 0.00 | 0.00 | 0.00 | 54 | 1017.2 |
| 20260506194313 | 17 | 82 | 1.6 | 6.4 | 0.00 | 0.00 | 0.00 | 54 | 1017.1 |
| 20260506194213 | 17 | 82 | 1.6 | 6.4 | 0.00 | 0.00 | 0.00 | 54 | 1017.2 |
| 20260506194112 | 17 | 81 | 1.6 | 6.4 | 0.00 | 0.00 | 0.00 | 54 | 1017.1 |
| 20260506194014 | 17 | 82 | 1.6 | 4.8 | 0.00 | 0.00 | 0.00 | 54 | 1017.2 |
| 20260506193913 | 17 | 83 | 1.6 | 4.8 | 0.00 | 0.00 | 0.00 | 54 | 1017.1 |
| 20260506193812 | 17 | 87 | 1.6 | 6.4 | 0.00 | 0.00 | 0.00 | 54 | 1017.1 |
| 20260506193714 | 17 | 95 | 1.6 | 8.0 | 0.00 | 0.00 | 0.00 | 54 | 1017.1 |
| 20260506193612 | 17 | 97 | 1.6 | 8.0 | 0.00 | 0.00 | 0.00 | 53 | 1017.1 |
| 20260506193508 | 17 | 97 | 3.2 | 8.0 | 0.00 | 0.00 | 0.00 | 53 | 1017.1 |
| 20260506193408 | 17 | 97 | 3.2 | 8.0 | 0.00 | 0.00 | 0.00 | 53 | 1017.1 |
| 20260506193310 | 17 | 97 | 3.2 | 8.0 | 0.00 | 0.00 | 0.00 | 52 | 1017.1 |
| 20260506193208 | 17 | 76 | 3.2 | 8.0 | 0.00 | 0.00 | 0.00 | 52 | 1017.0 |
| 20260506193109 | 17 | 76 | 3.2 | 8.0 | 0.00 | 0.00 | 0.00 | 51 | 1017.0 |
| 20260506193006 | 17 | 76 | 4.8 | 8.0 | 0.00 | 0.00 | 0.00 | 51 | 1017.1 |
| 20260506192907 | 18 | 76 | 4.8 | 8.0 | 0.00 | 0.00 | 0.00 | 51 | 1017.1 |
| 20260506192804 | 18 | 75 | 3.2 | 8.0 | 0.00 | 0.00 | 0.00 | 51 | 1017.1 |
| 20260506192702 | 18 | 72 | 3.2 | 6.4 | 0.00 | 0.00 | 0.00 | 51 | 1017.0 |
| 20260506192602 | 18 | 76 | 3.2 | 6.4 | 0.00 | 0.00 | 0.00 | 50 | 1017.0 |
| 20260506192501 | 18 | 75 | 3.2 | 6.4 | 0.00 | 0.00 | 0.00 | 51 | 1017.0 |
| 20260506192405 | 18 | 81 | 3.2 | 6.4 | 0.00 | 0.00 | 0.00 | 50 | 1017.0 |
| 20260506192305 | 18 | 68 | 3.2 | 6.4 | 0.00 | 0.00 | 0.00 | 50 | 1017.1 |
| 20260506192202 | 18 | 74 | 3.2 | 4.8 | 0.00 | 0.00 | 0.00 | 50 | 1017.0 |
| 20260506192102 | 18 | 74 | 3.2 | 4.8 | 0.00 | 0.00 | 0.00 | 50 | 1017.0 |
| 20260506192002 | 18 | 74 | 3.2 | 4.8 | 0.00 | 0.00 | 0.00 | 50 | 1016.9 |
| 20260506191902 | 18 | 75 | 3.2 | 4.8 | 0.00 | 0.00 | 0.00 | 49 | 1016.9 |
| 20260506191802 | 18 | 75 | 1.6 | 4.8 | 0.00 | 0.00 | 0.00 | 49 | 1017.1 |
| 20260506191702 | 18 | 75 | 1.6 | 4.8 | 0.00 | 0.00 | 0.00 | 49 | 1017.0 |
| 20260506191603 | 18 | 75 | 1.6 | 4.8 | 0.00 | 0.00 | 0.00 | 49 | 1016.9 |
| 20260506191503 | 18 | 75 | 1.6 | 4.8 | 0.00 | 0.00 | 0.00 | 49 | 1016.9 |
| 20260506191404 | 18 | 75 | 1.6 | 4.8 | 0.00 | 0.00 | 0.00 | 49 | 1016.9 |
| 20260506191303 | 18 | 75 | 1.6 | 4.8 | 0.00 | 0.00 | 0.00 | 49 | 1016.9 |
| 20260506191204 | 18 | 75 | 1.6 | 3.2 | 0.00 | 0.00 | 0.00 | 49 | 1016.8 |
| 20260506191102 | 18 | 75 | 1.6 | 4.8 | 0.00 | 0.00 | 0.00 | 48 | 1016.9 |
| 20260506191002 | 18 | 75 | 1.6 | 6.4 | 0.00 | 0.00 | 0.00 | 49 | 1016.8 |
| 20260506190902 | 18 | 75 | 1.6 | 6.4 | 0.00 | 0.00 | 0.00 | 49 | 1016.9 |
| 20260506190802 | 18 | 75 | 3.2 | 6.4 | 0.00 | 0.00 | 0.00 | 48 | 1016.8 |
| 20260506190702 | 18 | 75 | 3.2 | 6.4 | 0.00 | 0.00 | 0.00 | 48 | 1016.8 |
| 20260506190618 | 18 | 75 | 3.2 | 6.4 | 0.00 | 0.00 | 0.00 | 48 | 1016.7 |
| 20260506190502 | 18 | 75 | 3.2 | 6.4 | 0.00 | 0.00 | 0.00 | 48 | 1016.8 |
| 20260506190402 | 18 | 75 | 3.2 | 6.4 | 0.00 | 0.00 | 0.00 | 48 | 1016.7 |
| 20260506190303 | 18 | 75 | 3.2 | 6.4 | 0.00 | 0.00 | 0.00 | 48 | 1016.6 |
| 20260506190202 | 18 | 75 | 3.2 | 6.4 | 0.00 | 0.00 | 0.00 | 48 | 1016.6 |
| 20260506190104 | 18 | 75 | 3.2 | 6.4 | 0.00 | 0.00 | 0.00 | 48 | 1016.6 |
| 20260506190005 | 18 | 76 | 3.2 | 6.4 | 0.00 | 0.00 | 0.00 | 48 | 1016.7 |
| 20260506185903 | 18 | 75 | 3.2 | 6.4 | 0.00 | 0.00 | 0.00 | 48 | 1016.6 |
| 20260506185805 | 18 | 74 | 3.2 | 6.4 | 0.00 | 0.00 | 0.00 | 48 | 1016.6 |
| 20260506185703 | 18 | 74 | 3.2 | 6.4 | 0.00 | 0.00 | 0.00 | 48 | 1016.5 |
| 20260506185602 | 18 | 76 | 1.6 | 6.4 | 0.00 | 0.00 | 0.00 | 48 | 1016.6 |
| 20260506185502 | 18 | 86 | 1.6 | 4.8 | 0.00 | 0.00 | 0.00 | 47 | 1016.5 |
| 20260506185402 | 18 | 116 | 1.6 | 4.8 | 0.00 | 0.00 | 0.00 | 47 | 1016.5 |
| 20260506185306 | 18 | 116 | 1.6 | 4.8 | 0.00 | 0.00 | 0.00 | 47 | 1016.5 |
| 20260506185204 | 18 | 116 | 1.6 | 4.8 | 0.00 | 0.00 | 0.00 | 47 | 1016.5 |
| 20260506185103 | 18 | 116 | 1.6 | 8.0 | 0.00 | 0.00 | 0.00 | 47 | 1016.5 |
| 20260506185004 | 18 | 116 | 3.2 | 8.0 | 0.00 | 0.00 | 0.00 | 47 | 1016.5 |
| 20260506184903 | 18 | 66 | 3.2 | 8.0 | 0.00 | 0.00 | 0.00 | 47 | 1016.4 |
| 20260506184802 | 18 | 59 | 3.2 | 11.3 | 0.00 | 0.00 | 0.00 | 47 | 1016.5 |
| 20260506184702 | 18 | 58 | 4.8 | 11.3 | 0.00 | 0.00 | 0.00 | 48 | 1016.4 |
| 20260506184603 | 18 | 58 | 4.8 | 11.3 | 0.00 | 0.00 | 0.00 | 48 | 1016.5 |
| 20260506184504 | 18 | 58 | 4.8 | 11.3 | 0.00 | 0.00 | 0.00 | 48 | 1016.4 |
| 20260506184406 | 18 | 58 | 4.8 | 11.3 | 0.00 | 0.00 | 0.00 | 48 | 1016.4 |
| 20260506184302 | 18 | 69 | 6.4 | 11.3 | 0.00 | 0.00 | 0.00 | 48 | 1016.4 |
| 20260506184205 | 18 | 68 | 6.4 | 12.9 | 0.00 | 0.00 | 0.00 | 47 | 1016.4 |
| 20260506184102 | 18 | 93 | 6.4 | 12.9 | 0.00 | 0.00 | 0.00 | 47 | 1016.4 |
| 20260506184003 | 18 | 81 | 6.4 | 14.5 | 0.00 | 0.00 | 0.00 | 48 | 1016.3 |
| 20260506183903 | 18 | 83 | 6.4 | 14.5 | 0.00 | 0.00 | 0.00 | 48 | 1016.3 |
| 20260506183802 | 18 | 83 | 6.4 | 14.5 | 0.00 | 0.00 | 0.00 | 48 | 1016.3 |
| 20260506183704 | 18 | 83 | 6.4 | 14.5 | 0.00 | 0.00 | 0.00 | 48 | 1016.3 |
| 20260506183603 | 18 | 91 | 8.0 | 14.5 | 0.00 | 0.00 | 0.00 | 48 | 1016.2 |
| 20260506183505 | 18 | 93 | 8.0 | 14.5 | 0.00 | 0.00 | 0.00 | 48 | 1016.3 |
| 20260506183404 | 18 | 87 | 8.0 | 14.5 | 0.00 | 0.00 | 0.00 | 48 | 1016.2 |
| 20260506183302 | 18 | 95 | 6.4 | 14.5 | 0.00 | 0.00 | 0.00 | 48 | 1016.2 |
| 20260506183202 | 18 | 86 | 6.4 | 14.5 | 0.00 | 0.00 | 0.00 | 47 | 1016.1 |
| 20260506183102 | 18 | 79 | 6.4 | 14.5 | 0.00 | 0.00 | 0.00 | 47 | 1016.2 |
| 20260506183004 | 18 | 75 | 6.4 | 12.9 | 0.00 | 0.00 | 0.00 | 47 | 1016.1 |
| 20260506182902 | 18 | 95 | 4.8 | 12.9 | 0.00 | 0.00 | 0.00 | 47 | 1016.0 |
| 20260506182803 | 18 | 78 | 4.8 | 12.9 | 0.00 | 0.00 | 0.00 | 47 | 1016.0 |
| 20260506182704 | 18 | 82 | 4.8 | 11.3 | 0.00 | 0.00 | 0.00 | 47 | 1016.0 |
| 20260506182604 | 18 | 90 | 4.8 | 11.3 | 0.00 | 0.00 | 0.00 | 47 | 1016.0 |
| 20260506182502 | 18 | 92 | 4.8 | 11.3 | 0.00 | 0.00 | 0.00 | 47 | 1016.0 |
| 20260506182403 | 18 | 83 | 4.8 | 12.9 | 0.00 | 0.00 | 0.00 | 47 | 1016.0 |
| 20260506182306 | 18 | 87 | 4.8 | 12.9 | 0.00 | 0.00 | 0.00 | 47 | 1016.0 |
| 20260506182202 | 18 | 87 | 4.8 | 12.9 | 0.00 | 0.00 | 0.00 | 47 | 1016.0 |
| 20260506182108 | 18 | 93 | 6.4 | 12.9 | 0.00 | 0.00 | 0.00 | 47 | 1015.9 |
| 20260506182004 | 18 | 85 | 4.8 | 12.9 | 0.00 | 0.00 | 0.00 | 47 | 1015.9 |
| 20260506181902 | 18 | 89 | 4.8 | 12.9 | 0.00 | 0.00 | 0.00 | 47 | 1015.9 |
| 20260506181805 | 18 | 79 | 4.8 | 12.9 | 0.00 | 0.00 | 0.00 | 47 | 1015.9 |
| 20260506181703 | 18 | 100 | 4.8 | 12.9 | 0.00 | 0.00 | 0.00 | 47 | 1015.9 |
| 20260506181607 | 19 | 86 | 4.8 | 12.9 | 0.00 | 0.00 | 0.00 | 47 | 1015.9 |
| 20260506181502 | 19 | 76 | 4.8 | 12.9 | 0.00 | 0.00 | 0.00 | 47 | 1015.9 |
| 20260506181404 | 19 | 85 | 4.8 | 11.3 | 0.00 | 0.00 | 0.00 | 47 | 1015.9 |
| 20260506181302 | 19 | 89 | 4.8 | 11.3 | 0.00 | 0.00 | 0.00 | 47 | 1015.8 |
| 20260506181204 | 19 | 85 | 4.8 | 11.3 | 0.00 | 0.00 | 0.00 | 47 | 1015.8 |
| 20260506181104 | 19 | 81 | 6.4 | 12.9 | 0.00 | 0.00 | 0.00 | 47 | 1015.8 |
| 20260506181004 | 19 | 88 | 6.4 | 12.9 | 0.00 | 0.00 | 0.00 | 47 | 1015.8 |
| 20260506180902 | 19 | 103 | 6.4 | 14.5 | 0.00 | 0.00 | 0.00 | 47 | 1015.8 |
| 20260506180803 | 19 | 82 | 6.4 | 14.5 | 0.00 | 0.00 | 0.00 | 47 | 1015.8 |
| 20260506180704 | 19 | 87 | 6.4 | 14.5 | 0.00 | 0.00 | 0.00 | 47 | 1015.8 |
| 20260506180604 | 19 | 89 | 6.4 | 14.5 | 0.00 | 0.00 | 0.00 | 47 | 1015.8 |
| 20260506180502 | 19 | 89 | 8.0 | 14.5 | 0.00 | 0.00 | 0.00 | 47 | 1015.8 |
| 20260506180402 | 19 | 93 | 8.0 | 14.5 | 0.00 | 0.00 | 0.00 | 47 | 1015.8 |
| 20260506180303 | 19 | 90 | 8.0 | 14.5 | 0.00 | 0.00 | 0.00 | 47 | 1015.8 |
| 20260506180206 | 19 | 83 | 8.0 | 14.5 | 0.00 | 0.00 | 0.00 | 47 | 1015.8 |
| 20260506180103 | 19 | 82 | 8.0 | 14.5 | 0.00 | 0.00 | 0.00 | 47 | 1015.7 |
| 20260506180005 | 19 | 86 | 8.0 | 14.5 | 0.00 | 0.00 | 0.00 | 47 | 1015.8 |
| 20260506175903 | 19 | 91 | 8.0 | 12.9 | 0.00 | 0.00 | 0.00 | 47 | 1015.7 |
| 20260506175802 | 19 | 89 | 6.4 | 12.9 | 0.00 | 0.00 | 0.00 | 46 | 1015.7 |
| 20260506175703 | 19 | 81 | 6.4 | 12.9 | 0.00 | 0.00 | 0.00 | 46 | 1015.7 |
| 20260506175604 | 19 | 89 | 6.4 | 12.9 | 0.00 | 0.00 | 0.00 | 46 | 1015.7 |
| 20260506175502 | 19 | 85 | 6.4 | 12.9 | 0.00 | 0.00 | 0.00 | 46 | 1015.8 |
| 20260506175405 | 19 | 97 | 6.4 | 12.9 | 0.00 | 0.00 | 0.00 | 46 | 1015.7 |
| 20260506175306 | 19 | 91 | 8.0 | 12.9 | 0.00 | 0.00 | 0.00 | 46 | 1015.7 |
| 20260506175203 | 19 | 77 | 8.0 | 12.9 | 0.00 | 0.00 | 0.00 | 46 | 1015.7 |
| 20260506175104 | 19 | 81 | 6.4 | 12.9 | 0.00 | 0.00 | 0.00 | 46 | 1015.6 |
| 20260506175003 | 19 | 76 | 6.4 | 12.9 | 0.00 | 0.00 | 0.00 | 46 | 1015.7 |
| 20260506174902 | 20 | 89 | 6.4 | 12.9 | 0.00 | 0.00 | 0.00 | 46 | 1015.7 |
| 20260506174802 | 20 | 99 | 8.0 | 12.9 | 0.00 | 0.00 | 0.00 | 46 | 1015.7 |
| 20260506174704 | 20 | 93 | 8.0 | 12.9 | 0.00 | 0.00 | 0.00 | 46 | 1015.7 |
| 20260506174605 | 20 | 82 | 8.0 | 12.9 | 0.00 | 0.00 | 0.00 | 46 | 1015.6 |
| 20260506174503 | 20 | 90 | 6.4 | 12.9 | 0.00 | 0.00 | 0.00 | 46 | 1015.6 |
| 20260506174404 | 20 | 74 | 6.4 | 12.9 | 0.00 | 0.00 | 0.00 | 46 | 1015.7 |
| 20260506174304 | 20 | 74 | 6.4 | 12.9 | 0.00 | 0.00 | 0.00 | 46 | 1015.7 |
| 20260506174202 | 20 | 81 | 6.4 | 11.3 | 0.00 | 0.00 | 0.00 | 46 | 1015.6 |
| 20260506174102 | 20 | 79 | 6.4 | 11.3 | 0.00 | 0.00 | 0.00 | 46 | 1015.6 |
| 20260506174004 | 20 | 75 | 6.4 | 11.3 | 0.00 | 0.00 | 0.00 | 46 | 1015.6 |
| 20260506173903 | 20 | 88 | 6.4 | 11.3 | 0.00 | 0.00 | 0.00 | 46 | 1015.6 |
| 20260506173804 | 20 | 91 | 6.4 | 11.3 | 0.00 | 0.00 | 0.00 | 46 | 1015.6 |
| 20260506173704 | 20 | 79 | 6.4 | 11.3 | 0.00 | 0.00 | 0.00 | 47 | 1015.5 |
| 20260506173602 | 20 | 84 | 6.4 | 11.3 | 0.00 | 0.00 | 0.00 | 47 | 1015.6 |
| 20260506173503 | 20 | 90 | 6.4 | 11.3 | 0.00 | 0.00 | 0.00 | 47 | 1015.6 |
| 20260506173402 | 20 | 66 | 6.4 | 11.3 | 0.00 | 0.00 | 0.00 | 47 | 1015.6 |
| 20260506173302 | 20 | 83 | 6.4 | 12.9 | 0.00 | 0.00 | 0.00 | 47 | 1015.6 |
| 20260506173202 | 20 | 91 | 8.0 | 12.9 | 0.00 | 0.00 | 0.00 | 47 | 1015.6 |
| 20260506173103 | 20 | 79 | 8.0 | 14.5 | 0.00 | 0.00 | 0.00 | 47 | 1015.6 |
| 20260506173005 | 20 | 76 | 6.4 | 14.5 | 0.00 | 0.00 | 0.00 | 47 | 1015.6 |
| 20260506172903 | 20 | 79 | 6.4 | 14.5 | 0.00 | 0.00 | 0.00 | 47 | 1015.6 |
| 20260506172802 | 20 | 90 | 8.0 | 14.5 | 0.00 | 0.00 | 0.00 | 47 | 1015.5 |
| 20260506172703 | 20 | 74 | 8.0 | 14.5 | 0.00 | 0.00 | 0.00 | 47 | 1015.5 |
| 20260506172602 | 20 | 86 | 8.0 | 14.5 | 0.00 | 0.00 | 0.00 | 47 | 1015.6 |
| 20260506172502 | 20 | 89 | 8.0 | 14.5 | 0.00 | 0.00 | 0.00 | 47 | 1015.6 |
| 20260506172402 | 20 | 85 | 8.0 | 14.5 | 0.00 | 0.00 | 0.00 | 46 | 1015.5 |
| 20260506172306 | 20 | 76 | 8.0 | 14.5 | 0.00 | 0.00 | 0.00 | 46 | 1015.6 |
| 20260506172204 | 20 | 72 | 6.4 | 14.5 | 0.00 | 0.00 | 0.00 | 46 | 1015.5 |
| 20260506172102 | 20 | 83 | 6.4 | 11.3 | 0.00 | 0.00 | 0.00 | 46 | 1015.5 |
| 20260506172004 | 20 | 85 | 6.4 | 11.3 | 0.00 | 0.00 | 0.00 | 45 | 1015.6 |
| 20260506171902 | 20 | 91 | 6.4 | 11.3 | 0.00 | 0.00 | 0.00 | 45 | 1015.6 |
| 20260506171802 | 20 | 81 | 6.4 | 11.3 | 0.00 | 0.00 | 0.00 | 44 | 1015.6 |
| 20260506171704 | 20 | 79 | 6.4 | 11.3 | 0.00 | 0.00 | 0.00 | 44 | 1015.5 |
| 20260506171604 | 20 | 86 | 4.8 | 11.3 | 0.00 | 0.00 | 0.00 | 43 | 1015.5 |
| 20260506171503 | 20 | 76 | 4.8 | 9.7 | 0.00 | 0.00 | 0.00 | 43 | 1015.5 |
| 20260506171405 | 21 | 79 | 4.8 | 9.7 | 0.00 | 0.00 | 0.00 | 43 | 1015.5 |
| 20260506171302 | 21 | 85 | 4.8 | 9.7 | 0.00 | 0.00 | 0.00 | 42 | 1015.5 |
| 20260506171201 | 21 | 89 | 4.8 | 9.7 | 0.00 | 0.00 | 0.00 | 42 | 1015.5 |
| 20260506171104 | 21 | 130 | 4.8 | 9.7 | 0.00 | 0.00 | 0.00 | 41 | 1015.5 |
| 20260506171002 | 21 | 85 | 3.2 | 9.7 | 0.00 | 0.00 | 0.00 | 41 | 1015.5 |
| 20260506170902 | 21 | 85 | 3.2 | 9.7 | 0.00 | 0.00 | 0.00 | 41 | 1015.5 |
| 20260506170802 | 21 | 88 | 3.2 | 9.7 | 0.00 | 0.00 | 0.00 | 41 | 1015.5 |
| 20260506170702 | 21 | 79 | 3.2 | 9.7 | 0.00 | 0.00 | 0.00 | 41 | 1015.5 |
| 20260506170605 | 21 | 82 | 3.2 | 6.4 | 0.00 | 0.00 | 0.00 | 40 | 1015.5 |
| 20260506170504 | 21 | 102 | 3.2 | 6.4 | 0.00 | 0.00 | 0.00 | 40 | 1015.5 |
| 20260506170404 | 21 | 122 | 3.2 | 6.4 | 0.00 | 0.00 | 0.00 | 40 | 1015.6 |
| 20260506170302 | 21 | 87 | 3.2 | 6.4 | 0.00 | 0.00 | 0.00 | 40 | 1015.5 |
| 20260506170202 | 21 | 99 | 3.2 | 6.4 | 0.00 | 0.00 | 0.00 | 40 | 1015.5 |
| 20260506170104 | 21 | 118 | 3.2 | 6.4 | 0.00 | 0.00 | 0.00 | 40 | 1015.5 |
| 20260506170003 | 21 | 118 | 3.2 | 6.4 | 0.00 | 0.00 | 0.00 | 41 | 1015.5 |
| 20260506165903 | 21 | 114 | 3.2 | 6.4 | 0.00 | 0.00 | 0.00 | 41 | 1015.5 |
| 20260506165804 | 21 | 112 | 3.2 | 6.4 | 0.00 | 0.00 | 0.00 | 41 | 1015.6 |
| 20260506165702 | 21 | 124 | 3.2 | 6.4 | 0.00 | 0.00 | 0.00 | 41 | 1015.5 |
| 20260506165606 | 21 | 115 | 3.2 | 6.4 | 0.00 | 0.00 | 0.00 | 41 | 1015.6 |
| 20260506165503 | 21 | 115 | 3.2 | 6.4 | 0.00 | 0.00 | 0.00 | 41 | 1015.5 |
| 20260506165404 | 21 | 115 | 3.2 | 6.4 | 0.00 | 0.00 | 0.00 | 42 | 1015.5 |
| 20260506165305 | 21 | 103 | 3.2 | 6.4 | 0.00 | 0.00 | 0.00 | 42 | 1015.6 |
| 20260506165202 | 22 | 147 | 3.2 | 8.0 | 0.00 | 0.00 | 0.00 | 42 | 1015.6 |
| 20260506165103 | 22 | 147 | 3.2 | 8.0 | 0.00 | 0.00 | 0.00 | 42 | 1015.5 |
| 20260506165005 | 22 | 147 | 3.2 | 8.0 | 0.00 | 0.00 | 0.00 | 42 | 1015.6 |
| 20260506164903 | 22 | 151 | 3.2 | 8.0 | 0.00 | 0.00 | 0.00 | 43 | 1015.6 |
| 20260506164803 | 22 | 134 | 3.2 | 8.0 | 0.00 | 0.00 | 0.00 | 44 | 1015.6 |
| 20260506164702 | 22 | 134 | 3.2 | 8.0 | 0.00 | 0.00 | 0.00 | 43 | 1015.6 |
| 20260506164605 | 22 | 104 | 3.2 | 8.0 | 0.00 | 0.00 | 0.00 | 44 | 1015.6 |
| 20260506164502 | 22 | 94 | 3.2 | 8.0 | 0.00 | 0.00 | 0.00 | 44 | 1015.7 |
| 20260506164403 | 22 | 145 | 3.2 | 8.0 | 0.00 | 0.00 | 0.00 | 44 | 1015.7 |
| 20260506164302 | 22 | 145 | 3.2 | 8.0 | 0.00 | 0.00 | 0.00 | 44 | 1015.7 |
| 20260506164203 | 22 | 142 | 1.6 | 8.0 | 0.00 | 0.00 | 0.00 | 46 | 1015.7 |
| 20260506164105 | 22 | 140 | 3.2 | 6.4 | 0.00 | 0.00 | 0.00 | 46 | 1015.7 |
| 20260506164005 | 22 | 140 | 3.2 | 6.4 | 0.00 | 0.00 | 0.00 | 46 | 1015.7 |
| 20260506163903 | 22 | 140 | 3.2 | 6.4 | 0.00 | 0.00 | 0.00 | 45 | 1015.6 |
| 20260506163803 | 22 | 141 | 3.2 | 6.4 | 0.00 | 0.00 | 0.00 | 45 | 1015.6 |
| 20260506163703 | 22 | 140 | 3.2 | 6.4 | 0.00 | 0.00 | 0.00 | 45 | 1015.7 |
| 20260506163601 | 21 | 123 | 3.2 | 6.4 | 0.00 | 0.00 | 0.00 | 46 | 1015.6 |
| 20260506163458 | 21 | 206 | 3.2 | 8.0 | 0.00 | 0.00 | 0.00 | 46 | 1015.7 |
| 20260506163358 | 21 | 206 | 4.8 | 8.0 | 0.00 | 0.00 | 0.00 | 46 | 1015.7 |
| 20260506163258 | 21 | 206 | 3.2 | 8.0 | 0.00 | 0.00 | 0.00 | 46 | 1015.8 |
| 20260506163158 | 22 | 206 | 3.2 | 8.0 | 0.00 | 0.00 | 0.00 | 46 | 1015.7 |
| 20260506163054 | 22 | 206 | 3.2 | 8.0 | 0.00 | 0.00 | 0.00 | 45 | 1015.7 |
| 20260506162951 | 22 | 201 | 3.2 | 8.0 | 0.00 | 0.00 | 0.00 | 46 | 1015.7 |
| 20260506162849 | 22 | 174 | 4.8 | 8.0 | 0.00 | 0.00 | 0.00 | 46 | 1015.7 |
| 20260506162749 | 22 | 174 | 4.8 | 8.0 | 0.00 | 0.00 | 0.00 | 46 | 1015.7 |
| 20260506162649 | 22 | 173 | 4.8 | 9.7 | 0.00 | 0.00 | 0.00 | 46 | 1015.7 |
| 20260506162549 | 22 | 174 | 4.8 | 9.7 | 0.00 | 0.00 | 0.00 | 46 | 1015.7 |
| 20260506162447 | 22 | 171 | 4.8 | 9.7 | 0.00 | 0.00 | 0.00 | 46 | 1015.7 |
| 20260506162346 | 22 | 189 | 4.8 | 9.7 | 0.00 | 0.00 | 0.00 | 47 | 1015.7 |
| 20260506162246 | 22 | 128 | 4.8 | 9.7 | 0.00 | 0.00 | 0.00 | 47 | 1015.7 |
| 20260506162146 | 22 | 197 | 4.8 | 9.7 | 0.00 | 0.00 | 0.00 | 47 | 1015.7 |
| 20260506162043 | 22 | 198 | 4.8 | 9.7 | 0.00 | 0.00 | 0.00 | 47 | 1015.7 |
| 20260506161943 | 22 | 193 | 6.4 | 11.3 | 0.00 | 0.00 | 0.00 | 46 | 1015.8 |
| 20260506161842 | 22 | 176 | 6.4 | 11.3 | 0.00 | 0.00 | 0.00 | 46 | 1015.7 |
| 20260506161741 | 22 | 166 | 6.4 | 11.3 | 0.00 | 0.00 | 0.00 | 47 | 1015.7 |
| 20260506161640 | 22 | 195 | 6.4 | 11.3 | 0.00 | 0.00 | 0.00 | 47 | 1015.8 |
| 20260506161539 | 22 | 189 | 6.4 | 11.3 | 0.00 | 0.00 | 0.00 | 48 | 1015.7 |
| 20260506161440 | 22 | 176 | 8.0 | 12.9 | 0.00 | 0.00 | 0.00 | 48 | 1015.8 |
| 20260506161338 | 22 | 193 | 8.0 | 12.9 | 0.00 | 0.00 | 0.00 | 49 | 1015.7 |
| 20260506161238 | 22 | 186 | 8.0 | 17.7 | 0.00 | 0.00 | 0.00 | 49 | 1015.8 |
| 20260506161138 | 22 | 191 | 8.0 | 17.7 | 0.00 | 0.00 | 0.00 | 49 | 1015.8 |
| 20260506161038 | 22 | 184 | 8.0 | 17.7 | 0.00 | 0.00 | 0.00 | 49 | 1015.8 |
| 20260506160940 | 22 | 172 | 8.0 | 17.7 | 0.00 | 0.00 | 0.00 | 48 | 1015.8 |
| 20260506160839 | 22 | 218 | 8.0 | 17.7 | 0.00 | 0.00 | 0.00 | 48 | 1015.8 |
| 20260506160734 | 22 | 149 | 8.0 | 17.7 | 0.00 | 0.00 | 0.00 | 48 | 1015.8 |
| 20260506160634 | 22 | 177 | 8.0 | 17.7 | 0.00 | 0.00 | 0.00 | 47 | 1015.7 |
| 20260506160536 | 22 | 194 | 9.7 | 17.7 | 0.00 | 0.00 | 0.00 | 47 | 1015.8 |
| 20260506160434 | 22 | 181 | 9.7 | 17.7 | 0.00 | 0.00 | 0.00 | 47 | 1015.8 |
| 20260506160331 | 22 | 178 | 9.7 | 17.7 | 0.00 | 0.00 | 0.00 | 47 | 1015.8 |
| 20260506160232 | 22 | 188 | 9.7 | 17.7 | 0.00 | 0.00 | 0.00 | 47 | 1015.8 |
| 20260506160132 | 22 | 190 | 9.7 | 17.7 | 0.00 | 0.00 | 0.00 | 47 | 1015.8 |
| 20260506160031 | 22 | 183 | 11.3 | 17.7 | 0.00 | 0.00 | 0.00 | 47 | 1015.8 |
| 20260506155932 | 22 | 172 | 11.3 | 17.7 | 0.00 | 0.00 | 0.00 | 47 | 1015.9 |
| 20260506155836 | 22 | 197 | 11.3 | 17.7 | 0.00 | 0.00 | 0.00 | 47 | 1015.8 |
| 20260506155732 | 22 | 200 | 11.3 | 17.7 | 0.00 | 0.00 | 0.00 | 48 | 1015.8 |
| 20260506155630 | 22 | 211 | 11.3 | 17.7 | 0.00 | 0.00 | 0.00 | 48 | 1015.8 |
| 20260506155533 | 22 | 207 | 9.7 | 16.1 | 0.00 | 0.00 | 0.00 | 49 | 1015.9 |
| 20260506155432 | 22 | 211 | 9.7 | 16.1 | 0.00 | 0.00 | 0.00 | 49 | 1015.8 |
| 20260506155332 | 22 | 211 | 9.7 | 16.1 | 0.00 | 0.00 | 0.00 | 49 | 1015.8 |
| 20260506155233 | 22 | 220 | 8.0 | 16.1 | 0.00 | 0.00 | 0.00 | 48 | 1015.8 |
| 20260506155131 | 22 | 211 | 8.0 | 16.1 | 0.00 | 0.00 | 0.00 | 48 | 1015.8 |
| 20260506155032 | 22 | 194 | 8.0 | 14.5 | 0.00 | 0.00 | 0.00 | 49 | 1015.8 |
| 20260506154932 | 22 | 192 | 8.0 | 12.9 | 0.00 | 0.00 | 0.00 | 49 | 1015.8 |
| 20260506154834 | 22 | 206 | 8.0 | 12.9 | 0.00 | 0.00 | 0.00 | 50 | 1015.8 |
| 20260506154732 | 22 | 224 | 6.4 | 12.9 | 0.00 | 0.00 | 0.00 | 50 | 1015.8 |
| 20260506154632 | 22 | 216 | 6.4 | 11.3 | 0.00 | 0.00 | 0.00 | 50 | 1015.8 |
| 20260506154532 | 22 | 218 | 8.0 | 11.3 | 0.00 | 0.00 | 0.00 | 50 | 1015.8 |
| 20260506154432 | 22 | 216 | 8.0 | 12.9 | 0.00 | 0.00 | 0.00 | 50 | 1015.8 |
| 20260506154331 | 22 | 258 | 8.0 | 12.9 | 0.00 | 0.00 | 0.00 | 50 | 1015.9 |
| 20260506154231 | 22 | 240 | 8.0 | 12.9 | 0.00 | 0.00 | 0.00 | 50 | 1015.8 |
| 20260506154132 | 22 | 223 | 8.0 | 12.9 | 0.00 | 0.00 | 0.00 | 50 | 1015.9 |
| 20260506154029 | 22 | 238 | 8.0 | 12.9 | 0.00 | 0.00 | 0.00 | 49 | 1015.9 |
| 20260506153926 | 22 | 209 | 8.0 | 12.9 | 0.00 | 0.00 | 0.00 | 49 | 1015.9 |
| 20260506153828 | 22 | 224 | 8.0 | 12.9 | 0.00 | 0.00 | 0.00 | 49 | 1015.9 |
| 20260506153727 | 22 | 195 | 8.0 | 12.9 | 0.00 | 0.00 | 0.00 | 50 | 1015.9 |
| 20260506153626 | 22 | 190 | 8.0 | 17.7 | 0.00 | 0.00 | 0.00 | 49 | 1015.9 |
| 20260506153523 | 22 | 189 | 8.0 | 17.7 | 0.00 | 0.00 | 0.00 | 49 | 1015.9 |
| 20260506153423 | 22 | 192 | 8.0 | 17.7 | 0.00 | 0.00 | 0.00 | 50 | 1015.8 |
| 20260506153322 | 22 | 227 | 8.0 | 17.7 | 0.00 | 0.00 | 0.00 | 49 | 1015.9 |
| 20260506153223 | 22 | 257 | 8.0 | 17.7 | 0.00 | 0.00 | 0.00 | 49 | 1015.9 |
| 20260506153121 | 22 | 228 | 9.7 | 17.7 | 0.00 | 0.00 | 0.00 | 48 | 1015.9 |
| 20260506153014 | 22 | 235 | 9.7 | 17.7 | 0.00 | 0.00 | 0.00 | 47 | 1015.9 |
| 20260506152915 | 22 | 214 | 8.0 | 17.7 | 0.00 | 0.00 | 0.00 | 46 | 1016.0 |
| 20260506152816 | 22 | 186 | 8.0 | 17.7 | 0.00 | 0.00 | 0.00 | 46 | 1015.9 |
| 20260506152715 | 22 | 164 | 8.0 | 17.7 | 0.00 | 0.00 | 0.00 | 46 | 1016.0 |
| 20260506152615 | 22 | 192 | 8.0 | 16.1 | 0.00 | 0.00 | 0.00 | 47 | 1015.9 |
| 20260506152509 | 22 | 191 | 8.0 | 16.1 | 0.00 | 0.00 | 0.00 | 46 | 1015.9 |
| 20260506152409 | 22 | 182 | 8.0 | 16.1 | 0.00 | 0.00 | 0.00 | 46 | 1016.0 |
| 20260506152309 | 22 | 187 | 8.0 | 16.1 | 0.00 | 0.00 | 0.00 | 47 | 1016.0 |
| 20260506152208 | 22 | 180 | 8.0 | 16.1 | 0.00 | 0.00 | 0.00 | 47 | 1016.0 |
| 20260506152109 | 22 | 210 | 9.7 | 16.1 | 0.00 | 0.00 | 0.00 | 47 | 1016.0 |
| 20260506152005 | 22 | 216 | 9.7 | 20.9 | 0.00 | 0.00 | 0.00 | 47 | 1016.0 |
| 20260506151905 | 22 | 214 | 9.7 | 20.9 | 0.00 | 0.00 | 0.00 | 46 | 1016.0 |
| 20260506151802 | 22 | 189 | 11.3 | 20.9 | 0.00 | 0.00 | 0.00 | 47 | 1016.0 |
| 20260506151703 | 22 | 212 | 11.3 | 20.9 | 0.00 | 0.00 | 0.00 | 46 | 1016.0 |
| 20260506151603 | 22 | 213 | 11.3 | 20.9 | 0.00 | 0.00 | 0.00 | 47 | 1016.0 |
| 20260506151505 | 22 | 207 | 11.3 | 20.9 | 0.00 | 0.00 | 0.00 | 47 | 1016.0 |
| 20260506151403 | 22 | 189 | 11.3 | 20.9 | 0.00 | 0.00 | 0.00 | 46 | 1016.1 |
| 20260506151304 | 22 | 199 | 12.9 | 20.9 | 0.00 | 0.00 | 0.00 | 45 | 1016.1 |
| 20260506151206 | 22 | 210 | 12.9 | 20.9 | 0.00 | 0.00 | 0.00 | 46 | 1016.1 |
| 20260506151105 | 22 | 213 | 11.3 | 20.9 | 0.00 | 0.00 | 0.00 | 47 | 1016.1 |
| 20260506151003 | 22 | 199 | 11.3 | 19.3 | 0.00 | 0.00 | 0.00 | 47 | 1016.1 |
| 20260506150904 | 22 | 199 | 12.9 | 19.3 | 0.00 | 0.00 | 0.00 | 47 | 1016.1 |
| 20260506150803 | 22 | 176 | 11.3 | 19.3 | 0.00 | 0.00 | 0.00 | 47 | 1016.1 |
| 20260506150702 | 22 | 210 | 11.3 | 20.9 | 0.00 | 0.00 | 0.00 | 47 | 1016.1 |
| 20260506150604 | 22 | 190 | 11.3 | 20.9 | 0.00 | 0.00 | 0.00 | 47 | 1016.1 |
| 20260506150503 | 22 | 199 | 12.9 | 20.9 | 0.00 | 0.00 | 0.00 | 47 | 1016.0 |
| 20260506150403 | 22 | 198 | 12.9 | 20.9 | 0.00 | 0.00 | 0.00 | 46 | 1016.1 |
| 20260506150302 | 22 | 197 | 12.9 | 20.9 | 0.00 | 0.00 | 0.00 | 46 | 1016.2 |
| 20260506150156 | 22 | 178 | 12.9 | 20.9 | 0.00 | 0.00 | 0.00 | 46 | 1016.1 |
| 20260506150058 | 22 | 207 | 12.9 | 20.9 | 0.00 | 0.00 | 0.00 | 47 | 1016.1 |
| 20260506145956 | 22 | 206 | 12.9 | 20.9 | 0.00 | 0.00 | 0.00 | 47 | 1016.2 |
| 20260506145856 | 22 | 205 | 11.3 | 20.9 | 0.00 | 0.00 | 0.00 | 46 | 1016.1 |
| 20260506145749 | 22 | 185 | 11.3 | 20.9 | 0.00 | 0.00 | 0.00 | 46 | 1016.1 |
| 20260506145701 | 22 | 201 | 11.3 | 20.9 | 0.00 | 0.00 | 0.00 | 46 | 1016.1 |
| 20260506145549 | 22 | 221 | 11.3 | 20.9 | 0.00 | 0.00 | 0.00 | 46 | 1016.2 |
| 20260506145448 | 22 | 199 | 9.7 | 20.9 | 0.00 | 0.00 | 0.00 | 46 | 1016.1 |
| 20260506145349 | 22 | 216 | 9.7 | 20.9 | 0.00 | 0.00 | 0.00 | 45 | 1016.1 |
| 20260506145249 | 22 | 209 | 9.7 | 20.9 | 0.00 | 0.00 | 0.00 | 46 | 1016.1 |
| 20260506145143 | 22 | 197 | 8.0 | 20.9 | 0.00 | 0.00 | 0.00 | 46 | 1016.1 |
| 20260506145041 | 22 | 199 | 8.0 | 16.1 | 0.00 | 0.00 | 0.00 | 49 | 1016.1 |
| 20260506144944 | 22 | 237 | 8.0 | 16.1 | 0.00 | 0.00 | 0.00 | 49 | 1016.1 |
| 20260506144841 | 22 | 261 | 8.0 | 16.1 | 0.00 | 0.00 | 0.00 | 50 | 1016.1 |
| 20260506144737 | 22 | 233 | 8.0 | 16.1 | 0.00 | 0.00 | 0.00 | 50 | 1016.0 |
| 20260506144635 | 22 | 245 | 8.0 | 16.1 | 0.00 | 0.00 | 0.00 | 50 | 1016.1 |
| 20260506144534 | 22 | 219 | 9.7 | 16.1 | 0.00 | 0.00 | 0.00 | 49 | 1016.1 |
| 20260506144435 | 22 | 240 | 9.7 | 16.1 | 0.00 | 0.00 | 0.00 | 49 | 1016.1 |
| 20260506144334 | 22 | 232 | 9.7 | 22.5 | 0.00 | 0.00 | 0.00 | 49 | 1016.2 |
| 20260506144234 | 22 | 248 | 9.7 | 22.5 | 0.00 | 0.00 | 0.00 | 48 | 1016.1 |
| 20260506144133 | 22 | 207 | 11.3 | 22.5 | 0.00 | 0.00 | 0.00 | 46 | 1016.1 |
| 20260506144034 | 22 | 191 | 9.7 | 22.5 | 0.00 | 0.00 | 0.00 | 46 | 1016.2 |
| 20260506143934 | 22 | 197 | 9.7 | 22.5 | 0.00 | 0.00 | 0.00 | 47 | 1016.2 |
| 20260506143834 | 22 | 212 | 9.7 | 22.5 | 0.00 | 0.00 | 0.00 | 47 | 1016.2 |
| 20260506143734 | 22 | 220 | 9.7 | 22.5 | 0.00 | 0.00 | 0.00 | 46 | 1016.1 |
| 20260506143632 | 23 | 222 | 9.7 | 22.5 | 0.00 | 0.00 | 0.00 | 46 | 1016.2 |
| 20260506143533 | 23 | 228 | 9.7 | 22.5 | 0.00 | 0.00 | 0.00 | 47 | 1016.2 |
| 20260506143433 | 23 | 216 | 9.7 | 22.5 | 0.00 | 0.00 | 0.00 | 46 | 1016.2 |
| 20260506143332 | 23 | 173 | 9.7 | 19.3 | 0.00 | 0.00 | 0.00 | 47 | 1016.3 |
| 20260506143233 | 22 | 172 | 8.0 | 16.1 | 0.00 | 0.00 | 0.00 | 49 | 1016.2 |
| 20260506143132 | 23 | 236 | 8.0 | 14.5 | 0.00 | 0.00 | 0.00 | 48 | 1016.3 |
| 20260506143033 | 23 | 219 | 8.0 | 17.7 | 0.00 | 0.00 | 0.00 | 48 | 1016.2 |
| 20260506142932 | 23 | 212 | 8.0 | 17.7 | 0.00 | 0.00 | 0.00 | 48 | 1016.3 |
| 20260506142832 | 23 | 208 | 8.0 | 17.7 | 0.00 | 0.00 | 0.00 | 48 | 1016.3 |
| 20260506142732 | 23 | 223 | 9.7 | 19.3 | 0.00 | 0.00 | 0.00 | 48 | 1016.2 |
| 20260506142633 | 23 | 216 | 9.7 | 19.3 | 0.00 | 0.00 | 0.00 | 48 | 1016.3 |
| 20260506142526 | 23 | 216 | 9.7 | 19.3 | 0.00 | 0.00 | 0.00 | 48 | 1016.3 |
| 20260506142427 | 23 | 185 | 9.7 | 20.9 | 0.00 | 0.00 | 0.00 | 48 | 1016.3 |
| 20260506142328 | 23 | 224 | 9.7 | 20.9 | 0.00 | 0.00 | 0.00 | 48 | 1016.3 |
| 20260506142227 | 23 | 215 | 9.7 | 20.9 | 0.00 | 0.00 | 0.00 | 47 | 1016.4 |
| 20260506142127 | 23 | 193 | 11.3 | 20.9 | 0.00 | 0.00 | 0.00 | 47 | 1016.4 |
| 20260506142021 | 23 | 225 | 11.3 | 20.9 | 0.00 | 0.00 | 0.00 | 48 | 1016.4 |
| 20260506141921 | 23 | 165 | 11.3 | 24.1 | 0.00 | 0.00 | 0.00 | 46 | 1016.4 |
| 20260506141822 | 23 | 172 | 11.3 | 24.1 | 0.00 | 0.00 | 0.00 | 48 | 1016.4 |
| 20260506141722 | 23 | 197 | 11.3 | 24.1 | 0.00 | 0.00 | 0.00 | 47 | 1016.4 |
| 20260506141621 | 23 | 218 | 11.3 | 24.1 | 0.00 | 0.00 | 0.00 | 47 | 1016.4 |
| 20260506141515 | 23 | 216 | 11.3 | 24.1 | 0.00 | 0.00 | 0.00 | 47 | 1016.4 |
| 20260506141414 | 23 | 208 | 11.3 | 24.1 | 0.00 | 0.00 | 0.00 | 48 | 1016.4 |
| 20260506141315 | 23 | 185 | 11.3 | 24.1 | 0.00 | 0.00 | 0.00 | 48 | 1016.4 |
| 20260506141215 | 23 | 218 | 11.3 | 24.1 | 0.00 | 0.00 | 0.00 | 46 | 1016.3 |
| 20260506141114 | 23 | 195 | 11.3 | 24.1 | 0.00 | 0.00 | 0.00 | 46 | 1016.4 |
| 20260506141010 | 23 | 216 | 11.3 | 24.1 | 0.00 | 0.00 | 0.00 | 46 | 1016.5 |
| 20260506140912 | 23 | 200 | 9.7 | 19.3 | 0.00 | 0.00 | 0.00 | 48 | 1016.4 |
| 20260506140810 | 23 | 208 | 9.7 | 19.3 | 0.00 | 0.00 | 0.00 | 48 | 1016.4 |
| 20260506140711 | 23 | 229 | 11.3 | 19.3 | 0.00 | 0.00 | 0.00 | 48 | 1016.5 |
| 20260506140609 | 23 | 222 | 11.3 | 19.3 | 0.00 | 0.00 | 0.00 | 47 | 1016.4 |
| 20260506140507 | 23 | 215 | 11.3 | 19.3 | 0.00 | 0.00 | 0.00 | 46 | 1016.5 |
| 20260506140408 | 23 | 224 | 11.3 | 19.3 | 0.00 | 0.00 | 0.00 | 46 | 1016.5 |
| 20260506140309 | 23 | 203 | 11.3 | 19.3 | 0.00 | 0.00 | 0.00 | 45 | 1016.4 |
| 20260506140207 | 23 | 221 | 11.3 | 19.3 | 0.00 | 0.00 | 0.00 | 46 | 1016.4 |
| 20260506140109 | 23 | 187 | 11.3 | 20.9 | 0.00 | 0.00 | 0.00 | 45 | 1016.4 |
| 20260506140008 | 23 | 211 | 11.3 | 20.9 | 0.00 | 0.00 | 0.00 | 45 | 1016.4 |
| 20260506135910 | 23 | 211 | 11.3 | 20.9 | 0.00 | 0.00 | 0.00 | 44 | 1016.5 |
| 20260506135806 | 23 | 170 | 11.3 | 20.9 | 0.00 | 0.00 | 0.00 | 45 | 1016.4 |
| 20260506135707 | 23 | 203 | 11.3 | 20.9 | 0.00 | 0.00 | 0.00 | 44 | 1016.5 |
| 20260506135605 | 23 | 185 | 11.3 | 20.9 | 0.00 | 0.00 | 0.00 | 46 | 1016.5 |
| 20260506135504 | 23 | 218 | 11.3 | 20.9 | 0.00 | 0.00 | 0.00 | 47 | 1016.4 |
| 20260506135404 | 23 | 234 | 11.3 | 20.9 | 0.00 | 0.00 | 0.00 | 46 | 1016.4 |
| 20260506135305 | 23 | 203 | 11.3 | 20.9 | 0.00 | 0.00 | 0.00 | 46 | 1016.5 |
| 20260506135203 | 23 | 215 | 9.7 | 17.7 | 0.00 | 0.00 | 0.00 | 47 | 1016.4 |
| 20260506135103 | 23 | 281 | 11.3 | 17.7 | 0.00 | 0.00 | 0.00 | 48 | 1016.4 |
| 20260506135004 | 23 | 222 | 11.3 | 17.7 | 0.00 | 0.00 | 0.00 | 47 | 1016.4 |
| 20260506134906 | 23 | 208 | 11.3 | 17.7 | 0.00 | 0.00 | 0.00 | 47 | 1016.4 |
| 20260506134804 | 23 | 237 | 11.3 | 17.7 | 0.00 | 0.00 | 0.00 | 46 | 1016.4 |
| 20260506134703 | 23 | 180 | 11.3 | 17.7 | 0.00 | 0.00 | 0.00 | 47 | 1016.4 |
| 20260506134603 | 22 | 220 | 11.3 | 17.7 | 0.00 | 0.00 | 0.00 | 47 | 1016.4 |
| 20260506134504 | 22 | 203 | 11.3 | 17.7 | 0.00 | 0.00 | 0.00 | 47 | 1016.4 |
| 20260506134405 | 23 | 245 | 11.3 | 17.7 | 0.00 | 0.00 | 0.00 | 47 | 1016.4 |
| 20260506134303 | 22 | 195 | 11.3 | 19.3 | 0.00 | 0.00 | 0.00 | 48 | 1016.3 |
| 20260506134204 | 22 | 211 | 11.3 | 19.3 | 0.00 | 0.00 | 0.00 | 48 | 1016.4 |
| 20260506134103 | 22 | 253 | 11.3 | 19.3 | 0.00 | 0.00 | 0.00 | 46 | 1016.4 |
| 20260506134003 | 22 | 206 | 11.3 | 19.3 | 0.00 | 0.00 | 0.00 | 47 | 1016.4 |
| 20260506133906 | 22 | 224 | 11.3 | 19.3 | 0.00 | 0.00 | 0.00 | 47 | 1016.4 |
| 20260506133803 | 22 | 243 | 11.3 | 22.5 | 0.00 | 0.00 | 0.00 | 46 | 1016.5 |
| 20260506133702 | 23 | 231 | 11.3 | 22.5 | 0.00 | 0.00 | 0.00 | 45 | 1016.5 |
| 20260506133602 | 23 | 238 | 11.3 | 22.5 | 0.00 | 0.00 | 0.00 | 46 | 1016.5 |
| 20260506133503 | 23 | 214 | 11.3 | 22.5 | 0.00 | 0.00 | 0.00 | 44 | 1016.4 |
| 20260506133405 | 23 | 201 | 11.3 | 22.5 | 0.00 | 0.00 | 0.00 | 45 | 1016.4 |
| 20260506133302 | 23 | 205 | 11.3 | 22.5 | 0.00 | 0.00 | 0.00 | 46 | 1016.5 |
| 20260506133205 | 23 | 235 | 12.9 | 22.5 | 0.00 | 0.00 | 0.00 | 46 | 1016.4 |
| 20260506133104 | 23 | 229 | 12.9 | 22.5 | 0.00 | 0.00 | 0.00 | 47 | 1016.5 |
| 20260506133004 | 23 | 238 | 11.3 | 22.5 | 0.00 | 0.00 | 0.00 | 46 | 1016.5 |
| 20260506132904 | 23 | 236 | 12.9 | 22.5 | 0.00 | 0.00 | 0.00 | 46 | 1016.5 |
| 20260506132802 | 23 | 218 | 12.9 | 25.7 | 0.00 | 0.00 | 0.00 | 46 | 1016.5 |
| 20260506132703 | 23 | 223 | 12.9 | 25.7 | 0.00 | 0.00 | 0.00 | 47 | 1016.5 |
| 20260506132603 | 23 | 220 | 12.9 | 25.7 | 0.00 | 0.00 | 0.00 | 47 | 1016.5 |
| 20260506132502 | 23 | 205 | 12.9 | 25.7 | 0.00 | 0.00 | 0.00 | 47 | 1016.5 |
| 20260506132405 | 23 | 228 | 12.9 | 25.7 | 0.00 | 0.00 | 0.00 | 47 | 1016.5 |
| 20260506132307 | 23 | 197 | 12.9 | 25.7 | 0.00 | 0.00 | 0.00 | 47 | 1016.4 |
| 20260506132203 | 23 | 240 | 11.3 | 25.7 | 0.00 | 0.00 | 0.00 | 47 | 1016.4 |
| 20260506132102 | 23 | 227 | 11.3 | 25.7 | 0.00 | 0.00 | 0.00 | 47 | 1016.6 |
| 20260506132002 | 23 | 243 | 11.3 | 25.7 | 0.00 | 0.00 | 0.00 | 46 | 1016.5 |
| 20260506131904 | 23 | 210 | 11.3 | 25.7 | 0.00 | 0.00 | 0.00 | 46 | 1016.5 |
| 20260506131804 | 23 | 196 | 9.7 | 20.9 | 0.00 | 0.00 | 0.00 | 46 | 1016.5 |
| 20260506131703 | 23 | 203 | 9.7 | 17.7 | 0.00 | 0.00 | 0.00 | 47 | 1016.5 |
| 20260506131603 | 23 | 197 | 9.7 | 16.1 | 0.00 | 0.00 | 0.00 | 47 | 1016.5 |
| 20260506131504 | 23 | 222 | 11.3 | 16.1 | 0.00 | 0.00 | 0.00 | 46 | 1016.5 |
| 20260506131420 | 23 | 220 | 11.3 | 17.7 | 0.00 | 0.00 | 0.00 | 48 | 1016.5 |
| 20260506131303 | 22 | 257 | 11.3 | 22.5 | 0.00 | 0.00 | 0.00 | 47 | 1016.5 |
| 20260506131204 | 22 | 244 | 11.3 | 22.5 | 0.00 | 0.00 | 0.00 | 49 | 1016.5 |
| 20260506131103 | 22 | 226 | 11.3 | 22.5 | 0.00 | 0.00 | 0.00 | 48 | 1016.5 |
| 20260506131004 | 22 | 233 | 11.3 | 22.5 | 0.00 | 0.00 | 0.00 | 48 | 1016.5 |
| 20260506130904 | 22 | 246 | 11.3 | 22.5 | 0.00 | 0.00 | 0.00 | 48 | 1016.5 |
| 20260506130802 | 22 | 248 | 12.9 | 22.5 | 0.00 | 0.00 | 0.00 | 48 | 1016.5 |
| 20260506130703 | 22 | 252 | 12.9 | 22.5 | 0.00 | 0.00 | 0.00 | 48 | 1016.5 |
| 20260506130604 | 22 | 212 | 12.9 | 22.5 | 0.00 | 0.00 | 0.00 | 48 | 1016.5 |
| 20260506130505 | 22 | 227 | 11.3 | 22.5 | 0.00 | 0.00 | 0.00 | 49 | 1016.5 |
| 20260506130404 | 22 | 218 | 12.9 | 22.5 | 0.00 | 0.00 | 0.00 | 49 | 1016.5 |
| 20260506130302 | 22 | 214 | 11.3 | 20.9 | 0.00 | 0.00 | 0.00 | 49 | 1016.5 |
| 20260506130205 | 22 | 244 | 12.9 | 20.9 | 0.00 | 0.00 | 0.00 | 50 | 1016.4 |
| 20260506130103 | 22 | 301 | 12.9 | 20.9 | 0.00 | 0.00 | 0.00 | 50 | 1016.4 |
| 20260506130005 | 22 | 207 | 12.9 | 22.5 | 0.00 | 0.00 | 0.00 | 49 | 1016.4 |
| 20260506125904 | 22 | 251 | 12.9 | 22.5 | 0.00 | 0.00 | 0.00 | 49 | 1016.5 |
| 20260506125804 | 23 | 205 | 12.9 | 22.5 | 0.00 | 0.00 | 0.00 | 49 | 1016.5 |
| 20260506125703 | 23 | 220 | 12.9 | 22.5 | 0.00 | 0.00 | 0.00 | 50 | 1016.4 |
| 20260506125605 | 23 | 239 | 12.9 | 22.5 | 0.00 | 0.00 | 0.00 | 50 | 1016.5 |
| 20260506125503 | 22 | 199 | 12.9 | 22.5 | 0.00 | 0.00 | 0.00 | 50 | 1016.5 |
| 20260506125404 | 22 | 166 | 12.9 | 22.5 | 0.00 | 0.00 | 0.00 | 50 | 1016.4 |
| 20260506125305 | 22 | 218 | 12.9 | 22.5 | 0.00 | 0.00 | 0.00 | 50 | 1016.5 |
| 20260506125203 | 22 | 232 | 12.9 | 22.5 | 0.00 | 0.00 | 0.00 | 52 | 1016.4 |
| 20260506125103 | 22 | 163 | 12.9 | 22.5 | 0.00 | 0.00 | 0.00 | 51 | 1016.5 |
| 20260506125004 | 22 | 215 | 11.3 | 20.9 | 0.00 | 0.00 | 0.00 | 51 | 1016.5 |
| 20260506124905 | 22 | 212 | 12.9 | 20.9 | 0.00 | 0.00 | 0.00 | 52 | 1016.5 |
| 20260506124803 | 22 | 228 | 11.3 | 22.5 | 0.00 | 0.00 | 0.00 | 52 | 1016.5 |
| 20260506124703 | 22 | 238 | 12.9 | 22.5 | 0.00 | 0.00 | 0.00 | 53 | 1016.5 |
| 20260506124606 | 22 | 223 | 12.9 | 22.5 | 0.00 | 0.00 | 0.00 | 52 | 1016.5 |
| 20260506124504 | 22 | 218 | 12.9 | 22.5 | 0.00 | 0.00 | 0.00 | 52 | 1016.5 |
| 20260506124404 | 22 | 176 | 12.9 | 22.5 | 0.00 | 0.00 | 0.00 | 51 | 1016.5 |
| 20260506124303 | 22 | 195 | 12.9 | 25.7 | 0.00 | 0.00 | 0.00 | 51 | 1016.6 |
| 20260506124204 | 22 | 223 | 14.5 | 25.7 | 0.00 | 0.00 | 0.00 | 51 | 1016.6 |
| 20260506124103 | 22 | 228 | 14.5 | 27.4 | 0.00 | 0.00 | 0.00 | 51 | 1016.6 |
| 20260506124007 | 22 | 237 | 14.5 | 30.6 | 0.00 | 0.00 | 0.00 | 50 | 1016.6 |
| 20260506123904 | 22 | 208 | 14.5 | 30.6 | 0.00 | 0.00 | 0.00 | 50 | 1016.6 |
| 20260506123803 | 22 | 201 | 14.5 | 30.6 | 0.00 | 0.00 | 0.00 | 50 | 1016.6 |
| 20260506123704 | 22 | 187 | 14.5 | 30.6 | 0.00 | 0.00 | 0.00 | 50 | 1016.6 |
| 20260506123604 | 22 | 220 | 12.9 | 30.6 | 0.00 | 0.00 | 0.00 | 50 | 1016.7 |
| 20260506123503 | 22 | 216 | 12.9 | 30.6 | 0.00 | 0.00 | 0.00 | 49 | 1016.6 |
| 20260506123404 | 22 | 180 | 12.9 | 30.6 | 0.00 | 0.00 | 0.00 | 50 | 1016.6 |
| 20260506123308 | 22 | 209 | 12.9 | 30.6 | 0.00 | 0.00 | 0.00 | 49 | 1016.6 |
| 20260506123202 | 23 | 212 | 12.9 | 30.6 | 0.00 | 0.00 | 0.00 | 49 | 1016.6 |
| 20260506123104 | 23 | 192 | 11.3 | 30.6 | 0.00 | 0.00 | 0.00 | 50 | 1016.7 |
| 20260506123004 | 23 | 188 | 12.9 | 19.3 | 0.00 | 0.00 | 0.00 | 51 | 1016.6 |
| 20260506122906 | 22 | 186 | 12.9 | 22.5 | 0.00 | 0.00 | 0.00 | 51 | 1016.6 |
| 20260506122807 | 22 | 234 | 12.9 | 22.5 | 0.00 | 0.00 | 0.00 | 52 | 1016.7 |
| 20260506122703 | 22 | 203 | 12.9 | 22.5 | 0.00 | 0.00 | 0.00 | 52 | 1016.6 |
| 20260506122603 | 22 | 257 | 12.9 | 22.5 | 0.00 | 0.00 | 0.00 | 52 | 1016.6 |
| 20260506122504 | 22 | 193 | 12.9 | 22.5 | 0.00 | 0.00 | 0.00 | 53 | 1016.7 |
| 20260506122405 | 22 | 229 | 12.9 | 25.7 | 0.00 | 0.00 | 0.00 | 53 | 1016.6 |
| 20260506122306 | 22 | 236 | 12.9 | 25.7 | 0.00 | 0.00 | 0.00 | 52 | 1016.6 |
| 20260506122203 | 22 | 193 | 12.9 | 25.7 | 0.00 | 0.00 | 0.00 | 52 | 1016.6 |
| 20260506122105 | 22 | 214 | 12.9 | 25.7 | 0.00 | 0.00 | 0.00 | 52 | 1016.6 |
| 20260506122003 | 22 | 220 | 12.9 | 25.7 | 0.00 | 0.00 | 0.00 | 52 | 1016.7 |
| 20260506121905 | 22 | 199 | 12.9 | 25.7 | 0.00 | 0.00 | 0.00 | 52 | 1016.6 |
| 20260506121804 | 22 | 220 | 12.9 | 27.4 | 0.00 | 0.00 | 0.00 | 52 | 1016.7 |
| 20260506121703 | 22 | 226 | 12.9 | 27.4 | 0.00 | 0.00 | 0.00 | 52 | 1016.7 |
| 20260506121603 | 22 | 249 | 12.9 | 27.4 | 0.00 | 0.00 | 0.00 | 53 | 1016.7 |
| 20260506121504 | 22 | 221 | 12.9 | 27.4 | 0.00 | 0.00 | 0.00 | 53 | 1016.7 |
| 20260506121406 | 22 | 205 | 14.5 | 27.4 | 0.00 | 0.00 | 0.00 | 53 | 1016.6 |
| 20260506121307 | 22 | 226 | 14.5 | 27.4 | 0.00 | 0.00 | 0.00 | 52 | 1016.6 |
| 20260506121203 | 22 | 220 | 14.5 | 27.4 | 0.00 | 0.00 | 0.00 | 52 | 1016.7 |
| 20260506121103 | 22 | 227 | 14.5 | 27.4 | 0.00 | 0.00 | 0.00 | 51 | 1016.8 |
| 20260506121003 | 22 | 210 | 14.5 | 27.4 | 0.00 | 0.00 | 0.00 | 51 | 1016.8 |
| 20260506120905 | 22 | 205 | 14.5 | 27.4 | 0.00 | 0.00 | 0.00 | 52 | 1016.7 |
| 20260506120803 | 22 | 217 | 12.9 | 22.5 | 0.00 | 0.00 | 0.00 | 51 | 1016.8 |
| 20260506120704 | 22 | 214 | 12.9 | 22.5 | 0.00 | 0.00 | 0.00 | 48 | 1016.8 |
| 20260506120603 | 22 | 230 | 12.9 | 22.5 | 0.00 | 0.00 | 0.00 | 48 | 1016.7 |
| 20260506120504 | 22 | 212 | 12.9 | 22.5 | 0.00 | 0.00 | 0.00 | 47 | 1016.8 |
| 20260506120405 | 22 | 225 | 12.9 | 22.5 | 0.00 | 0.00 | 0.00 | 48 | 1016.7 |
| 20260506120304 | 22 | 207 | 11.3 | 22.5 | 0.00 | 0.00 | 0.00 | 49 | 1016.7 |
| 20260506120203 | 22 | 210 | 11.3 | 22.5 | 0.00 | 0.00 | 0.00 | 49 | 1016.7 |
| 20260506120104 | 22 | 240 | 11.3 | 22.5 | 0.00 | 0.00 | 0.00 | 48 | 1016.7 |
| 20260506120004 | 22 | 224 | 11.3 | 22.5 | 0.00 | 0.00 | 0.00 | 47 | 1016.7 |
| 20260506115904 | 22 | 239 | 11.3 | 19.3 | 0.00 | 0.00 | 0.00 | 49 | 1016.7 |
| 20260506115803 | 22 | 233 | 9.7 | 19.3 | 0.00 | 0.00 | 0.00 | 49 | 1016.8 |
| 20260506115703 | 22 | 264 | 9.7 | 19.3 | 0.00 | 0.00 | 0.00 | 49 | 1016.7 |
| 20260506115602 | 22 | 248 | 9.7 | 19.3 | 0.00 | 0.00 | 0.00 | 49 | 1016.8 |
| 20260506115502 | 22 | 195 | 9.7 | 19.3 | 0.00 | 0.00 | 0.00 | 49 | 1016.8 |
| 20260506115406 | 22 | 247 | 9.7 | 19.3 | 0.00 | 0.00 | 0.00 | 49 | 1016.8 |
| 20260506115306 | 22 | 229 | 9.7 | 16.1 | 0.00 | 0.00 | 0.00 | 50 | 1016.8 |
| 20260506115203 | 22 | 220 | 9.7 | 16.1 | 0.00 | 0.00 | 0.00 | 51 | 1016.8 |
| 20260506115102 | 22 | 222 | 9.7 | 17.7 | 0.00 | 0.00 | 0.00 | 53 | 1016.8 |
| 20260506115004 | 22 | 217 | 9.7 | 17.7 | 0.00 | 0.00 | 0.00 | 51 | 1016.8 |
| 20260506114905 | 22 | 251 | 9.7 | 17.7 | 0.00 | 0.00 | 0.00 | 51 | 1016.8 |
| 20260506114804 | 22 | 257 | 9.7 | 17.7 | 0.00 | 0.00 | 0.00 | 50 | 1016.8 |
| 20260506114704 | 22 | 254 | 9.7 | 17.7 | 0.00 | 0.00 | 0.00 | 50 | 1016.9 |
| 20260506114604 | 22 | 282 | 11.3 | 17.7 | 0.00 | 0.00 | 0.00 | 50 | 1016.9 |
| 20260506114506 | 22 | 215 | 11.3 | 19.3 | 0.00 | 0.00 | 0.00 | 51 | 1016.8 |
| 20260506114405 | 22 | 219 | 9.7 | 19.3 | 0.00 | 0.00 | 0.00 | 51 | 1016.9 |
| 20260506114304 | 22 | 227 | 11.3 | 19.3 | 0.00 | 0.00 | 0.00 | 50 | 1016.8 |
| 20260506114203 | 22 | 150 | 9.7 | 19.3 | 0.00 | 0.00 | 0.00 | 50 | 1016.9 |
| 20260506114105 | 22 | 212 | 9.7 | 19.3 | 0.00 | 0.00 | 0.00 | 51 | 1016.8 |
| 20260506114004 | 22 | 199 | 9.7 | 19.3 | 0.00 | 0.00 | 0.00 | 50 | 1016.8 |
| 20260506113904 | 22 | 220 | 9.7 | 20.9 | 0.00 | 0.00 | 0.00 | 51 | 1016.9 |
| 20260506113803 | 22 | 207 | 9.7 | 20.9 | 0.00 | 0.00 | 0.00 | 53 | 1016.8 |
| 20260506113704 | 22 | 199 | 8.0 | 20.9 | 0.00 | 0.00 | 0.00 | 53 | 1016.9 |
| 20260506113605 | 22 | 255 | 8.0 | 20.9 | 0.00 | 0.00 | 0.00 | 53 | 1016.8 |
| 20260506113502 | 22 | 241 | 8.0 | 20.9 | 0.00 | 0.00 | 0.00 | 52 | 1016.9 |
| 20260506113418 | 22 | 238 | 8.0 | 20.9 | 0.00 | 0.00 | 0.00 | 52 | 1016.9 |
| 20260506113304 | 22 | 210 | 8.0 | 20.9 | 0.00 | 0.00 | 0.00 | 52 | 1016.8 |
| 20260506113202 | 22 | 273 | 8.0 | 20.9 | 0.00 | 0.00 | 0.00 | 53 | 1016.9 |
| 20260506113102 | 22 | 237 | 9.7 | 20.9 | 0.00 | 0.00 | 0.00 | 53 | 1016.9 |
| 20260506113004 | 22 | 237 | 8.0 | 20.9 | 0.00 | 0.00 | 0.00 | 54 | 1016.9 |
| 20260506112905 | 22 | 210 | 9.7 | 20.9 | 0.00 | 0.00 | 0.00 | 55 | 1016.9 |
| 20260506112805 | 22 | 188 | 9.7 | 20.9 | 0.00 | 0.00 | 0.00 | 55 | 1016.9 |
| 20260506112704 | 21 | 264 | 9.7 | 20.9 | 0.00 | 0.00 | 0.00 | 54 | 1017.0 |
| 20260506112602 | 21 | 226 | 9.7 | 20.9 | 0.00 | 0.00 | 0.00 | 55 | 1016.9 |
| 20260506112503 | 21 | 251 | 11.3 | 20.9 | 0.00 | 0.00 | 0.00 | 55 | 1017.0 |
| 20260506112405 | 21 | 222 | 9.7 | 20.9 | 0.00 | 0.00 | 0.00 | 55 | 1016.9 |
| 20260506112306 | 21 | 259 | 9.7 | 20.9 | 0.00 | 0.00 | 0.00 | 55 | 1016.9 |
| 20260506112202 | 21 | 256 | 9.7 | 20.9 | 0.00 | 0.00 | 0.00 | 55 | 1016.9 |
| 20260506112103 | 21 | 249 | 9.7 | 20.9 | 0.00 | 0.00 | 0.00 | 55 | 1016.9 |
| 20260506112004 | 21 | 276 | 9.7 | 17.7 | 0.00 | 0.00 | 0.00 | 55 | 1016.9 |
| 20260506111905 | 21 | 260 | 9.7 | 17.7 | 0.00 | 0.00 | 0.00 | 55 | 1016.9 |
| 20260506111803 | 21 | 232 | 9.7 | 17.7 | 0.00 | 0.00 | 0.00 | 54 | 1016.9 |
| 20260506111702 | 22 | 249 | 9.7 | 17.7 | 0.00 | 0.00 | 0.00 | 54 | 1016.9 |
| 20260506111604 | 22 | 218 | 8.0 | 17.7 | 0.00 | 0.00 | 0.00 | 55 | 1017.0 |
| 20260506111504 | 22 | 228 | 8.0 | 17.7 | 0.00 | 0.00 | 0.00 | 56 | 1016.8 |
| 20260506111404 | 22 | 242 | 9.7 | 17.7 | 0.00 | 0.00 | 0.00 | 56 | 1016.9 |
| 20260506111303 | 22 | 271 | 9.7 | 22.5 | 0.00 | 0.00 | 0.00 | 56 | 1016.9 |
| 20260506111203 | 22 | 247 | 8.0 | 22.5 | 0.00 | 0.00 | 0.00 | 56 | 1016.8 |
| 20260506111105 | 22 | 202 | 8.0 | 22.5 | 0.00 | 0.00 | 0.00 | 56 | 1016.8 |
| 20260506111003 | 22 | 245 | 8.0 | 22.5 | 0.00 | 0.00 | 0.00 | 56 | 1016.8 |
| 20260506110905 | 22 | 249 | 9.7 | 22.5 | 0.00 | 0.00 | 0.00 | 55 | 1016.9 |
| 20260506110802 | 22 | 273 | 9.7 | 22.5 | 0.00 | 0.00 | 0.00 | 54 | 1016.8 |
| 20260506110704 | 22 | 297 | 9.7 | 22.5 | 0.00 | 0.00 | 0.00 | 55 | 1016.8 |
| 20260506110604 | 22 | 205 | 9.7 | 22.5 | 0.00 | 0.00 | 0.00 | 54 | 1016.8 |
| 20260506110504 | 22 | 248 | 9.7 | 22.5 | 0.00 | 0.00 | 0.00 | 55 | 1016.9 |
| 20260506110417 | 22 | 234 | 9.7 | 22.5 | 0.00 | 0.00 | 0.00 | 56 | 1016.8 |
| 20260506110304 | 22 | 197 | 9.7 | 22.5 | 0.00 | 0.00 | 0.00 | 59 | 1016.8 |
| 20260506110204 | 22 | 227 | 9.7 | 22.5 | 0.00 | 0.00 | 0.00 | 58 | 1016.8 |
| 20260506110104 | 22 | 226 | 11.3 | 22.5 | 0.00 | 0.00 | 0.00 | 57 | 1016.8 |
| 20260506110005 | 22 | 228 | 11.3 | 22.5 | 0.00 | 0.00 | 0.00 | 57 | 1016.9 |
| 20260506105905 | 22 | 232 | 11.3 | 22.5 | 0.00 | 0.00 | 0.00 | 58 | 1016.8 |
| 20260506105803 | 22 | 254 | 11.3 | 22.5 | 0.00 | 0.00 | 0.00 | 58 | 1016.8 |
| 20260506105703 | 22 | 282 | 11.3 | 22.5 | 0.00 | 0.00 | 0.00 | 57 | 1016.8 |
| 20260506105603 | 22 | 253 | 11.3 | 22.5 | 0.00 | 0.00 | 0.00 | 55 | 1016.8 |
| 20260506105504 | 22 | 213 | 11.3 | 22.5 | 0.00 | 0.00 | 0.00 | 56 | 1016.7 |
| 20260506105406 | 22 | 232 | 11.3 | 20.9 | 0.00 | 0.00 | 0.00 | 56 | 1016.8 |
| 20260506105305 | 22 | 198 | 11.3 | 20.9 | 0.00 | 0.00 | 0.00 | 58 | 1016.8 |
| 20260506105204 | 22 | 242 | 11.3 | 20.9 | 0.00 | 0.00 | 0.00 | 56 | 1016.8 |
| 20260506105103 | 22 | 233 | 11.3 | 25.7 | 0.00 | 0.00 | 0.00 | 57 | 1016.8 |
| 20260506105002 | 22 | 202 | 11.3 | 25.7 | 0.00 | 0.00 | 0.00 | 58 | 1016.7 |
| 20260506104906 | 22 | 214 | 12.9 | 32.2 | 0.00 | 0.00 | 0.00 | 59 | 1016.8 |
| 20260506104804 | 22 | 262 | 12.9 | 32.2 | 0.00 | 0.00 | 0.00 | 59 | 1016.8 |
| 20260506104703 | 22 | 219 | 12.9 | 32.2 | 0.00 | 0.00 | 0.00 | 58 | 1016.7 |
| 20260506104604 | 22 | 290 | 12.9 | 32.2 | 0.00 | 0.00 | 0.00 | 57 | 1016.7 |
| 20260506104503 | 22 | 210 | 12.9 | 32.2 | 0.00 | 0.00 | 0.00 | 57 | 1016.8 |
| 20260506104405 | 22 | 278 | 12.9 | 32.2 | 0.00 | 0.00 | 0.00 | 57 | 1016.8 |
| 20260506104303 | 22 | 198 | 12.9 | 32.2 | 0.00 | 0.00 | 0.00 | 56 | 1016.7 |
| 20260506104204 | 22 | 246 | 12.9 | 32.2 | 0.00 | 0.00 | 0.00 | 52 | 1016.7 |
| 20260506104059 | 22 | 229 | 12.9 | 32.2 | 0.00 | 0.00 | 0.00 | 53 | 1016.7 |
| 20260506103958 | 22 | 195 | 12.9 | 32.2 | 0.00 | 0.00 | 0.00 | 50 | 1016.7 |
| 20260506103859 | 22 | 194 | 12.9 | 22.5 | 0.00 | 0.00 | 0.00 | 54 | 1016.7 |
| 20260506103757 | 22 | 201 | 12.9 | 22.5 | 0.00 | 0.00 | 0.00 | 55 | 1016.7 |
| 20260506103659 | 22 | 202 | 11.3 | 22.5 | 0.00 | 0.00 | 0.00 | 54 | 1016.7 |
| 20260506103553 | 22 | 214 | 11.3 | 22.5 | 0.00 | 0.00 | 0.00 | 55 | 1016.8 |
| 20260506103453 | 22 | 219 | 11.3 | 22.5 | 0.00 | 0.00 | 0.00 | 55 | 1016.8 |
| 20260506103351 | 22 | 226 | 11.3 | 22.5 | 0.00 | 0.00 | 0.00 | 53 | 1016.7 |
| 20260506103253 | 22 | 214 | 11.3 | 22.5 | 0.00 | 0.00 | 0.00 | 53 | 1016.7 |
| 20260506103152 | 22 | 236 | 11.3 | 22.5 | 0.00 | 0.00 | 0.00 | 55 | 1016.7 |
| 20260506103052 | 22 | 220 | 11.3 | 22.5 | 0.00 | 0.00 | 0.00 | 54 | 1016.7 |
| 20260506102951 | 22 | 230 | 11.3 | 22.5 | 0.00 | 0.00 | 0.00 | 53 | 1016.7 |
| 20260506102849 | 22 | 234 | 11.3 | 22.5 | 0.00 | 0.00 | 0.00 | 54 | 1016.7 |
| 20260506102749 | 22 | 280 | 11.3 | 22.5 | 0.00 | 0.00 | 0.00 | 57 | 1016.8 |
| 20260506102651 | 22 | 205 | 12.9 | 25.7 | 0.00 | 0.00 | 0.00 | 57 | 1016.7 |
| 20260506102549 | 22 | 269 | 11.3 | 25.7 | 0.00 | 0.00 | 0.00 | 56 | 1016.8 |
| 20260506102450 | 22 | 215 | 11.3 | 25.7 | 0.00 | 0.00 | 0.00 | 54 | 1016.7 |
| 20260506102349 | 23 | 237 | 11.3 | 25.7 | 0.00 | 0.00 | 0.00 | 53 | 1016.7 |
| 20260506102251 | 23 | 224 | 11.3 | 25.7 | 0.00 | 0.00 | 0.00 | 51 | 1016.8 |
| 20260506102151 | 23 | 224 | 11.3 | 25.7 | 0.00 | 0.00 | 0.00 | 51 | 1016.6 |
| 20260506102050 | 23 | 211 | 11.3 | 25.7 | 0.00 | 0.00 | 0.00 | 50 | 1016.7 |
| 20260506101951 | 22 | 203 | 11.3 | 25.7 | 0.00 | 0.00 | 0.00 | 51 | 1016.8 |
| 20260506101847 | 22 | 230 | 11.3 | 25.7 | 0.00 | 0.00 | 0.00 | 51 | 1016.8 |
| 20260506101743 | 22 | 194 | 11.3 | 25.7 | 0.00 | 0.00 | 0.00 | 53 | 1016.7 |
| 20260506101643 | 22 | 192 | 11.3 | 24.1 | 0.00 | 0.00 | 0.00 | 52 | 1016.7 |
| 20260506101543 | 22 | 207 | 11.3 | 24.1 | 0.00 | 0.00 | 0.00 | 51 | 1016.7 |
| 20260506101444 | 22 | 244 | 11.3 | 24.1 | 0.00 | 0.00 | 0.00 | 51 | 1016.7 |
| 20260506101339 | 22 | 245 | 11.3 | 25.7 | 0.00 | 0.00 | 0.00 | 50 | 1016.7 |
| 20260506101240 | 22 | 243 | 11.3 | 25.7 | 0.00 | 0.00 | 0.00 | 49 | 1016.7 |
| 20260506101141 | 22 | 195 | 12.9 | 25.7 | 0.00 | 0.00 | 0.00 | 46 | 1016.7 |
| 20260506101040 | 22 | 206 | 12.9 | 25.7 | 0.00 | 0.00 | 0.00 | 45 | 1016.7 |
| 20260506100940 | 22 | 247 | 12.9 | 25.7 | 0.00 | 0.00 | 0.00 | 45 | 1016.8 |
| 20260506100840 | 22 | 220 | 12.9 | 25.7 | 0.00 | 0.00 | 0.00 | 45 | 1016.8 |
| 20260506100742 | 22 | 229 | 12.9 | 25.7 | 0.00 | 0.00 | 0.00 | 45 | 1016.7 |
| 20260506100637 | 22 | 212 | 12.9 | 25.7 | 0.00 | 0.00 | 0.00 | 45 | 1016.7 |
| 20260506100538 | 22 | 221 | 12.9 | 25.7 | 0.00 | 0.00 | 0.00 | 45 | 1016.8 |
| 20260506100437 | 22 | 201 | 12.9 | 25.7 | 0.00 | 0.00 | 0.00 | 45 | 1016.7 |
| 20260506100338 | 22 | 176 | 14.5 | 25.7 | 0.00 | 0.00 | 0.00 | 46 | 1016.8 |
| 20260506100237 | 22 | 218 | 14.5 | 25.7 | 0.00 | 0.00 | 0.00 | 45 | 1016.8 |
| 20260506100140 | 22 | 236 | 14.5 | 25.7 | 0.00 | 0.00 | 0.00 | 45 | 1016.8 |
| 20260506100037 | 22 | 251 | 14.5 | 25.7 | 0.00 | 0.00 | 0.00 | 44 | 1016.8 |
| 20260506095938 | 22 | 236 | 14.5 | 25.7 | 0.00 | 0.00 | 0.00 | 45 | 1016.9 |
| 20260506095838 | 22 | 239 | 14.5 | 25.7 | 0.00 | 0.00 | 0.00 | 46 | 1016.8 |
| 20260506095742 | 22 | 224 | 14.5 | 25.7 | 0.00 | 0.00 | 0.00 | 46 | 1016.8 |
| 20260506095638 | 22 | 225 | 14.5 | 25.7 | 0.00 | 0.00 | 0.00 | 48 | 1016.8 |
| 20260506095537 | 22 | 206 | 12.9 | 25.7 | 0.00 | 0.00 | 0.00 | 48 | 1016.8 |
| 20260506095438 | 22 | 216 | 12.9 | 25.7 | 0.00 | 0.00 | 0.00 | 49 | 1016.8 |
| 20260506095337 | 22 | 249 | 12.9 | 20.9 | 0.00 | 0.00 | 0.00 | 49 | 1016.8 |
| 20260506095240 | 22 | 262 | 12.9 | 19.3 | 0.00 | 0.00 | 0.00 | 49 | 1016.7 |
| 20260506095137 | 22 | 209 | 12.9 | 20.9 | 0.00 | 0.00 | 0.00 | 50 | 1016.7 |
| 20260506095037 | 22 | 220 | 12.9 | 20.9 | 0.00 | 0.00 | 0.00 | 51 | 1016.7 |
| 20260506094937 | 22 | 231 | 12.9 | 20.9 | 0.00 | 0.00 | 0.00 | 50 | 1016.7 |
| 20260506094837 | 22 | 249 | 12.9 | 20.9 | 0.00 | 0.00 | 0.00 | 48 | 1016.7 |
| 20260506094738 | 22 | 229 | 12.9 | 20.9 | 0.00 | 0.00 | 0.00 | 48 | 1016.7 |
| 20260506094637 | 22 | 222 | 12.9 | 25.7 | 0.00 | 0.00 | 0.00 | 47 | 1016.6 |
| 20260506094537 | 22 | 239 | 12.9 | 25.7 | 0.00 | 0.00 | 0.00 | 45 | 1016.7 |
| 20260506094432 | 23 | 251 | 12.9 | 25.7 | 0.00 | 0.00 | 0.00 | 44 | 1016.7 |
| 20260506094331 | 23 | 243 | 12.9 | 25.7 | 0.00 | 0.00 | 0.00 | 45 | 1016.7 |
| 20260506094233 | 23 | 240 | 12.9 | 25.7 | 0.00 | 0.00 | 0.00 | 45 | 1016.7 |
| 20260506094132 | 23 | 224 | 12.9 | 25.7 | 0.00 | 0.00 | 0.00 | 44 | 1016.7 |
| 20260506094031 | 23 | 216 | 12.9 | 25.7 | 0.00 | 0.00 | 0.00 | 45 | 1016.7 |
| 20260506093932 | 23 | 173 | 12.9 | 25.7 | 0.00 | 0.00 | 0.00 | 45 | 1016.7 |
| 20260506093831 | 22 | 216 | 14.5 | 25.7 | 0.00 | 0.00 | 0.00 | 45 | 1016.7 |
| 20260506093731 | 22 | 227 | 14.5 | 25.7 | 0.00 | 0.00 | 0.00 | 43 | 1016.7 |
| 20260506093631 | 22 | 264 | 14.5 | 24.1 | 0.00 | 0.00 | 0.00 | 44 | 1016.7 |
| 20260506093533 | 22 | 214 | 14.5 | 24.1 | 0.00 | 0.00 | 0.00 | 44 | 1016.7 |
| 20260506093435 | 22 | 189 | 14.5 | 24.1 | 0.00 | 0.00 | 0.00 | 44 | 1016.7 |
| 20260506093332 | 22 | 217 | 14.5 | 24.1 | 0.00 | 0.00 | 0.00 | 43 | 1016.7 |
| 20260506093232 | 22 | 210 | 14.5 | 24.1 | 0.00 | 0.00 | 0.00 | 42 | 1016.7 |
| 20260506093132 | 22 | 265 | 14.5 | 24.1 | 0.00 | 0.00 | 0.00 | 42 | 1016.7 |
| 20260506093030 | 22 | 220 | 12.9 | 24.1 | 0.00 | 0.00 | 0.00 | 42 | 1016.7 |
| 20260506092931 | 22 | 248 | 12.9 | 24.1 | 0.00 | 0.00 | 0.00 | 43 | 1016.7 |
| 20260506092832 | 22 | 185 | 12.9 | 22.5 | 0.00 | 0.00 | 0.00 | 44 | 1016.7 |
| 20260506092732 | 22 | 256 | 12.9 | 22.5 | 0.00 | 0.00 | 0.00 | 43 | 1016.7 |
| 20260506092630 | 22 | 216 | 12.9 | 22.5 | 0.00 | 0.00 | 0.00 | 44 | 1016.7 |
| 20260506092532 | 23 | 262 | 12.9 | 22.5 | 0.00 | 0.00 | 0.00 | 44 | 1016.6 |
| 20260506092432 | 23 | 250 | 12.9 | 22.5 | 0.00 | 0.00 | 0.00 | 44 | 1016.7 |
| 20260506092332 | 23 | 221 | 12.9 | 22.5 | 0.00 | 0.00 | 0.00 | 44 | 1016.6 |
| 20260506092231 | 23 | 218 | 12.9 | 22.5 | 0.00 | 0.00 | 0.00 | 44 | 1016.7 |
| 20260506092132 | 22 | 212 | 12.9 | 22.5 | 0.00 | 0.00 | 0.00 | 44 | 1016.7 |
| 20260506092028 | 22 | 274 | 14.5 | 22.5 | 0.00 | 0.00 | 0.00 | 44 | 1016.7 |
| 20260506091928 | 23 | 257 | 12.9 | 20.9 | 0.00 | 0.00 | 0.00 | 43 | 1016.7 |
| 20260506091829 | 23 | 272 | 12.9 | 20.9 | 0.00 | 0.00 | 0.00 | 42 | 1016.6 |
| 20260506091726 | 23 | 220 | 14.5 | 20.9 | 0.00 | 0.00 | 0.00 | 40 | 1016.7 |
| 20260506091629 | 23 | 232 | 14.5 | 20.9 | 0.00 | 0.00 | 0.00 | 41 | 1016.6 |
| 20260506091527 | 23 | 207 | 14.5 | 20.9 | 0.00 | 0.00 | 0.00 | 41 | 1016.7 |
| 20260506091427 | 23 | 227 | 14.5 | 20.9 | 0.00 | 0.00 | 0.00 | 40 | 1016.7 |
| 20260506091325 | 23 | 189 | 14.5 | 20.9 | 0.00 | 0.00 | 0.00 | 40 | 1016.7 |
| 20260506091227 | 23 | 289 | 14.5 | 20.9 | 0.00 | 0.00 | 0.00 | 39 | 1016.7 |
| 20260506091126 | 23 | 199 | 12.9 | 20.9 | 0.00 | 0.00 | 0.00 | 40 | 1016.7 |
| 20260506091025 | 23 | 216 | 12.9 | 19.3 | 0.00 | 0.00 | 0.00 | 40 | 1016.6 |
| 20260506090927 | 23 | 202 | 12.9 | 19.3 | 0.00 | 0.00 | 0.00 | 39 | 1016.7 |
| 20260506090821 | 23 | 216 | 12.9 | 19.3 | 0.00 | 0.00 | 0.00 | 39 | 1016.7 |
| 20260506090721 | 23 | 210 | 11.3 | 19.3 | 0.00 | 0.00 | 0.00 | 39 | 1016.7 |
| 20260506090622 | 23 | 234 | 11.3 | 22.5 | 0.00 | 0.00 | 0.00 | 39 | 1016.7 |
| 20260506090521 | 23 | 227 | 11.3 | 22.5 | 0.00 | 0.00 | 0.00 | 39 | 1016.7 |
| 20260506090422 | 23 | 220 | 9.7 | 22.5 | 0.00 | 0.00 | 0.00 | 40 | 1016.7 |
| 20260506090321 | 23 | 228 | 9.7 | 22.5 | 0.00 | 0.00 | 0.00 | 41 | 1016.7 |
| 20260506090221 | 23 | 229 | 9.7 | 22.5 | 0.00 | 0.00 | 0.00 | 41 | 1016.7 |
| 20260506090119 | 23 | 214 | 11.3 | 22.5 | 0.00 | 0.00 | 0.00 | 40 | 1016.7 |
| 20260506090020 | 23 | 209 | 9.7 | 22.5 | 0.00 | 0.00 | 0.00 | 40 | 1016.7 |
| 20260506085920 | 23 | 264 | 9.7 | 22.5 | 0.00 | 0.00 | 0.00 | 40 | 1016.6 |
| 20260506085821 | 23 | 237 | 9.7 | 22.5 | 0.00 | 0.00 | 0.00 | 42 | 1016.6 |
| 20260506085721 | 23 | 225 | 11.3 | 22.5 | 0.00 | 0.00 | 0.00 | 41 | 1016.6 |
| 20260506085615 | 23 | 216 | 11.3 | 20.9 | 0.00 | 0.00 | 0.00 | 41 | 1016.6 |
| 20260506085517 | 23 | 254 | 9.7 | 17.7 | 0.00 | 0.00 | 0.00 | 40 | 1016.6 |
| 20260506085415 | 23 | 224 | 9.7 | 17.7 | 0.00 | 0.00 | 0.00 | 40 | 1016.6 |
| 20260506085315 | 23 | 234 | 9.7 | 17.7 | 0.00 | 0.00 | 0.00 | 40 | 1016.6 |
| 20260506085215 | 23 | 210 | 9.7 | 17.7 | 0.00 | 0.00 | 0.00 | 42 | 1016.6 |
| 20260506085115 | 23 | 226 | 9.7 | 17.7 | 0.00 | 0.00 | 0.00 | 41 | 1016.6 |
| 20260506085015 | 23 | 215 | 9.7 | 17.7 | 0.00 | 0.00 | 0.00 | 41 | 1016.6 |
| 20260506084916 | 23 | 220 | 9.7 | 17.7 | 0.00 | 0.00 | 0.00 | 40 | 1016.6 |
| 20260506084815 | 23 | 214 | 9.7 | 17.7 | 0.00 | 0.00 | 0.00 | 41 | 1016.6 |
| 20260506084717 | 23 | 222 | 9.7 | 17.7 | 0.00 | 0.00 | 0.00 | 41 | 1016.6 |
| 20260506084616 | 23 | 223 | 9.7 | 17.7 | 0.00 | 0.00 | 0.00 | 41 | 1016.6 |
| 20260506084515 | 23 | 255 | 9.7 | 17.7 | 0.00 | 0.00 | 0.00 | 41 | 1016.6 |
| 20260506084415 | 23 | 245 | 9.7 | 16.1 | 0.00 | 0.00 | 0.00 | 41 | 1016.6 |
| 20260506084316 | 23 | 254 | 9.7 | 16.1 | 0.00 | 0.00 | 0.00 | 42 | 1016.7 |
| 20260506084215 | 23 | 241 | 9.7 | 16.1 | 0.00 | 0.00 | 0.00 | 41 | 1016.6 |
| 20260506084115 | 23 | 207 | 9.7 | 16.1 | 0.00 | 0.00 | 0.00 | 41 | 1016.6 |
| 20260506084016 | 23 | 241 | 9.7 | 16.1 | 0.00 | 0.00 | 0.00 | 41 | 1016.5 |
| 20260506083916 | 23 | 230 | 9.7 | 16.1 | 0.00 | 0.00 | 0.00 | 41 | 1016.5 |
| 20260506083817 | 23 | 249 | 9.7 | 16.1 | 0.00 | 0.00 | 0.00 | 41 | 1016.6 |
| 20260506083712 | 23 | 305 | 9.7 | 16.1 | 0.00 | 0.00 | 0.00 | 40 | 1016.6 |
| 20260506083612 | 23 | 241 | 9.7 | 16.1 | 0.00 | 0.00 | 0.00 | 41 | 1016.6 |
| 20260506083512 | 23 | 243 | 9.7 | 16.1 | 0.00 | 0.00 | 0.00 | 41 | 1016.6 |
| 20260506083412 | 23 | 241 | 9.7 | 17.7 | 0.00 | 0.00 | 0.00 | 40 | 1016.5 |
| 20260506083311 | 23 | 227 | 9.7 | 17.7 | 0.00 | 0.00 | 0.00 | 41 | 1016.5 |
| 20260506083212 | 23 | 239 | 9.7 | 17.7 | 0.00 | 0.00 | 0.00 | 41 | 1016.5 |
| 20260506083111 | 23 | 234 | 9.7 | 17.7 | 0.00 | 0.00 | 0.00 | 41 | 1016.5 |
| 20260506083012 | 23 | 215 | 8.0 | 17.7 | 0.00 | 0.00 | 0.00 | 41 | 1016.5 |
| 20260506082911 | 23 | 216 | 8.0 | 17.7 | 0.00 | 0.00 | 0.00 | 41 | 1016.5 |
| 20260506082811 | 23 | 216 | 8.0 | 17.7 | 0.00 | 0.00 | 0.00 | 42 | 1016.5 |
| 20260506082711 | 23 | 241 | 8.0 | 17.7 | 0.00 | 0.00 | 0.00 | 41 | 1016.4 |
| 20260506082616 | 23 | 230 | 8.0 | 17.7 | 0.00 | 0.00 | 0.00 | 41 | 1016.5 |
| 20260506082512 | 23 | 249 | 8.0 | 17.7 | 0.00 | 0.00 | 0.00 | 41 | 1016.5 |
| 20260506082413 | 23 | 288 | 9.7 | 14.5 | 0.00 | 0.00 | 0.00 | 41 | 1016.5 |
| 20260506082312 | 23 | 286 | 9.7 | 16.1 | 0.00 | 0.00 | 0.00 | 41 | 1016.5 |
| 20260506082212 | 23 | 212 | 9.7 | 16.1 | 0.00 | 0.00 | 0.00 | 40 | 1016.5 |
| 20260506082115 | 23 | 251 | 9.7 | 16.1 | 0.00 | 0.00 | 0.00 | 40 | 1016.5 |
| 20260506082013 | 23 | 225 | 8.0 | 16.1 | 0.00 | 0.00 | 0.00 | 40 | 1016.6 |
| 20260506081912 | 23 | 224 | 8.0 | 16.1 | 0.00 | 0.00 | 0.00 | 40 | 1016.5 |
| 20260506081809 | 23 | 215 | 8.0 | 16.1 | 0.00 | 0.00 | 0.00 | 39 | 1016.5 |
| 20260506081709 | 23 | 215 | 8.0 | 16.1 | 0.00 | 0.00 | 0.00 | 40 | 1016.5 |
| 20260506081613 | 23 | 216 | 8.0 | 16.1 | 0.00 | 0.00 | 0.00 | 40 | 1016.6 |
| 20260506081508 | 23 | 207 | 6.4 | 16.1 | 0.00 | 0.00 | 0.00 | 41 | 1016.5 |
| 20260506081408 | 23 | 208 | 6.4 | 16.1 | 0.00 | 0.00 | 0.00 | 41 | 1016.4 |
| 20260506081309 | 23 | 204 | 6.4 | 14.5 | 0.00 | 0.00 | 0.00 | 41 | 1016.5 |
| 20260506081207 | 23 | 241 | 6.4 | 14.5 | 0.00 | 0.00 | 0.00 | 42 | 1016.5 |
| 20260506081112 | 23 | 292 | 6.4 | 12.9 | 0.00 | 0.00 | 0.00 | 42 | 1016.5 |
| 20260506081009 | 23 | 251 | 6.4 | 12.9 | 0.00 | 0.00 | 0.00 | 42 | 1016.5 |
| 20260506080908 | 23 | 274 | 6.4 | 12.9 | 0.00 | 0.00 | 0.00 | 43 | 1016.4 |
| 20260506080806 | 23 | 220 | 6.4 | 12.9 | 0.00 | 0.00 | 0.00 | 44 | 1016.5 |
| 20260506080708 | 23 | 218 | 6.4 | 12.9 | 0.00 | 0.00 | 0.00 | 43 | 1016.5 |
| 20260506080610 | 23 | 249 | 8.0 | 12.9 | 0.00 | 0.00 | 0.00 | 42 | 1016.4 |
| 20260506080510 | 23 | 240 | 8.0 | 16.1 | 0.00 | 0.00 | 0.00 | 42 | 1016.4 |
| 20260506080423 | 23 | 225 | 6.4 | 16.1 | 0.00 | 0.00 | 0.00 | 43 | 1016.4 |
| 20260506080308 | 23 | 205 | 6.4 | 16.1 | 0.00 | 0.00 | 0.00 | 43 | 1016.4 |
| 20260506080208 | 23 | 240 | 6.4 | 16.1 | 0.00 | 0.00 | 0.00 | 42 | 1016.5 |
| 20260506080108 | 23 | 274 | 8.0 | 16.1 | 0.00 | 0.00 | 0.00 | 41 | 1016.4 |
| 20260506073503 | 23 | 237 | 4.8 | 11.3 | 0.00 | 0.00 | 0.00 | 42 | 1016.2 |
| 20260506073404 | 23 | 237 | 4.8 | 11.3 | 0.00 | 0.00 | 0.00 | 42 | 1016.3 |
| 20260506073303 | 22 | 227 | 4.8 | 11.3 | 0.00 | 0.00 | 0.00 | 41 | 1016.2 |
| 20260506073203 | 22 | 209 | 4.8 | 11.3 | 0.00 | 0.00 | 0.00 | 43 | 1016.3 |
| 20260506073104 | 23 | 219 | 3.2 | 11.3 | 0.00 | 0.00 | 0.00 | 43 | 1016.2 |
| 20260506073003 | 23 | 299 | 3.2 | 11.3 | 0.00 | 0.00 | 0.00 | 45 | 1016.2 |
| 20260506072901 | 23 | 223 | 3.2 | 9.7 | 0.00 | 0.00 | 0.00 | 45 | 1016.3 |
| 20260506072759 | 23 | 223 | 3.2 | 9.7 | 0.00 | 0.00 | 0.00 | 45 | 1016.3 |
| 20260506072657 | 22 | 216 | 3.2 | 9.7 | 0.00 | 0.00 | 0.00 | 45 | 1016.2 |
| 20260506072558 | 22 | 218 | 4.8 | 9.7 | 0.00 | 0.00 | 0.00 | 45 | 1016.2 |
| 20260506072456 | 22 | 218 | 4.8 | 9.7 | 0.00 | 0.00 | 0.00 | 46 | 1016.3 |
| 20260506072355 | 22 | 214 | 4.8 | 9.7 | 0.00 | 0.00 | 0.00 | 46 | 1016.1 |
| 20260506072255 | 22 | 220 | 3.2 | 9.7 | 0.00 | 0.00 | 0.00 | 46 | 1016.2 |
| 20260506072154 | 22 | 222 | 4.8 | 9.7 | 0.00 | 0.00 | 0.00 | 46 | 1016.1 |
| 20260506072052 | 22 | 222 | 4.8 | 9.7 | 0.00 | 0.00 | 0.00 | 48 | 1016.1 |
| 20260506071948 | 22 | 222 | 3.2 | 9.7 | 0.00 | 0.00 | 0.00 | 47 | 1016.1 |
| 20260506071848 | 22 | 205 | 3.2 | 8.0 | 0.00 | 0.00 | 0.00 | 47 | 1016.1 |
| 20260506071744 | 22 | 205 | 3.2 | 8.0 | 0.00 | 0.00 | 0.00 | 46 | 1016.1 |
| 20260506071643 | 22 | 205 | 4.8 | 8.0 | 0.00 | 0.00 | 0.00 | 47 | 1016.1 |
| 20260506071547 | 22 | 221 | 4.8 | 8.0 | 0.00 | 0.00 | 0.00 | 48 | 1016.1 |
| 20260506071443 | 21 | 224 | 4.8 | 8.0 | 0.00 | 0.00 | 0.00 | 50 | 1016.1 |
| 20260506071341 | 21 | 222 | 3.2 | 11.3 | 0.00 | 0.00 | 0.00 | 50 | 1016.1 |
| 20260506071241 | 21 | 243 | 4.8 | 11.3 | 0.00 | 0.00 | 0.00 | 49 | 1016.1 |
| 20260506071139 | 21 | 243 | 4.8 | 11.3 | 0.00 | 0.00 | 0.00 | 48 | 1016.1 |
| 20260506071045 | 21 | 269 | 3.2 | 11.3 | 0.00 | 0.00 | 0.00 | 49 | 1016.1 |
| 20260506070938 | 21 | 253 | 4.8 | 11.3 | 0.00 | 0.00 | 0.00 | 51 | 1016.1 |
| 20260506070836 | 21 | 257 | 4.8 | 11.3 | 0.00 | 0.00 | 0.00 | 51 | 1016.1 |
| 20260506070737 | 21 | 259 | 4.8 | 11.3 | 0.00 | 0.00 | 0.00 | 51 | 1016.1 |
| 20260506070637 | 21 | 243 | 4.8 | 11.3 | 0.00 | 0.00 | 0.00 | 52 | 1016.1 |
| 20260506070541 | 21 | 257 | 4.8 | 11.3 | 0.00 | 0.00 | 0.00 | 51 | 1016.1 |
| 20260506070438 | 22 | 251 | 4.8 | 11.3 | 0.00 | 0.00 | 0.00 | 51 | 1016.1 |
| 20260506070337 | 22 | 247 | 4.8 | 9.7 | 0.00 | 0.00 | 0.00 | 50 | 1016.1 |
| 20260506070239 | 22 | 237 | 4.8 | 9.7 | 0.00 | 0.00 | 0.00 | 50 | 1016.1 |
| 20260506070137 | 22 | 221 | 6.4 | 9.7 | 0.00 | 0.00 | 0.00 | 50 | 1016.0 |
| 20260506062431 | 22 | 205 | 1.6 | 4.8 | 0.00 | 0.00 | 0.00 | 38 | 1016.1 |
| 20260506062330 | 22 | 205 | 1.6 | 4.8 | 0.00 | 0.00 | 0.00 | 37 | 1016.1 |
| 20260506062231 | 22 | 205 | 1.6 | 4.8 | 0.00 | 0.00 | 0.00 | 37 | 1016.0 |
| 20260506062132 | 22 | 205 | 1.6 | 4.8 | 0.00 | 0.00 | 0.00 | 37 | 1016.0 |
| 20260506062030 | 22 | 125 | 0.0 | 3.2 | 0.00 | 0.00 | 0.00 | 37 | 1016.1 |
| 20260506061934 | 22 | 56 | 0.0 | 3.2 | 0.00 | 0.00 | 0.00 | 37 | 1016.0 |
| 20260506061831 | 22 | 74 | 0.0 | 1.6 | 0.00 | 0.00 | 0.00 | 38 | 1016.1 |
| 20260506061734 | 22 | 74 | 0.0 | 1.6 | 0.00 | 0.00 | 0.00 | 38 | 1016.0 |
| 20260506061630 | 22 | 74 | 0.0 | 1.6 | 0.00 | 0.00 | 0.00 | 38 | 1016.0 |
| 20260506061530 | 22 | 74 | 0.0 | 1.6 | 0.00 | 0.00 | 0.00 | 38 | 1016.0 |
| 20260506061430 | 22 | 74 | 0.0 | 1.6 | 0.00 | 0.00 | 0.00 | 38 | 1016.0 |
| 20260506061332 | 22 | 74 | 0.0 | 1.6 | 0.00 | 0.00 | 0.00 | 38 | 1015.9 |
| 20260506061232 | 22 | 74 | 0.0 | 1.6 | 0.00 | 0.00 | 0.00 | 39 | 1016.0 |
| 20260506061132 | 22 | 74 | 0.0 | 1.6 | 0.00 | 0.00 | 0.00 | 39 | 1015.9 |
| 20260506061031 | 22 | 74 | 0.0 | 1.6 | 0.00 | 0.00 | 0.00 | 39 | 1016.0 |
| 20260506060932 | 22 | 74 | 0.0 | 1.6 | 0.00 | 0.00 | 0.00 | 40 | 1015.9 |
| 20260506060833 | 21 | 74 | 0.0 | 1.6 | 0.00 | 0.00 | 0.00 | 40 | 1016.0 |
| 20260506060735 | 21 | 74 | 0.0 | 0.0 | 0.00 | 0.00 | 0.00 | 40 | 1016.0 |
| 20260506060631 | 21 | 74 | 0.0 | 0.0 | 0.00 | 0.00 | 0.00 | 43 | 1016.0 |
| 20260506060531 | 21 | 74 | 0.0 | 0.0 | 0.00 | 0.00 | 0.00 | 43 | 1016.0 |
| 20260506060431 | 21 | 74 | 0.0 | 0.0 | 0.00 | 0.00 | 0.00 | 43 | 1016.0 |
| 20260506060332 | 21 | 74 | 0.0 | 0.0 | 0.00 | 0.00 | 0.00 | 43 | 1016.0 |
| 20260506060233 | 21 | 74 | 0.0 | 0.0 | 0.00 | 0.00 | 0.00 | 43 | 1015.9 |
| 20260506060131 | 21 | 74 | 0.0 | 0.0 | 0.00 | 0.00 | 0.00 | 43 | 1015.9 |
| 20260506051406 | 16 | 74 | 0.0 | 3.2 | 0.00 | 0.00 | 0.00 | 55 | 1015.9 |
| 20260506051304 | 16 | 74 | 0.0 | 3.2 | 0.00 | 0.00 | 0.00 | 54 | 1015.9 |
| 20260506051203 | 16 | 74 | 1.6 | 3.2 | 0.00 | 0.00 | 0.00 | 54 | 1015.9 |
| 20260506051102 | 16 | 74 | 1.6 | 3.2 | 0.00 | 0.00 | 0.00 | 54 | 1015.9 |
| 20260506051003 | 16 | 74 | 1.6 | 3.2 | 0.00 | 0.00 | 0.00 | 54 | 1015.9 |
| 20260506050904 | 16 | 74 | 1.6 | 3.2 | 0.00 | 0.00 | 0.00 | 54 | 1015.9 |
| 20260506050803 | 16 | 74 | 1.6 | 4.8 | 0.00 | 0.00 | 0.00 | 54 | 1015.9 |
| 20260506050704 | 16 | 74 | 1.6 | 4.8 | 0.00 | 0.00 | 0.00 | 54 | 1015.9 |
| 20260506050604 | 16 | 74 | 1.6 | 4.8 | 0.00 | 0.00 | 0.00 | 54 | 1015.9 |
| 20260506050503 | 16 | 74 | 1.6 | 4.8 | 0.00 | 0.00 | 0.00 | 54 | 1015.9 |
| 20260506050403 | 16 | 74 | 1.6 | 4.8 | 0.00 | 0.00 | 0.00 | 54 | 1015.9 |
| 20260506050304 | 16 | 74 | 1.6 | 4.8 | 0.00 | 0.00 | 0.00 | 54 | 1015.9 |
| 20260506050202 | 16 | 74 | 3.2 | 6.4 | 0.00 | 0.00 | 0.00 | 54 | 1015.9 |
| 20260506050104 | 16 | 74 | 3.2 | 6.4 | 0.00 | 0.00 | 0.00 | 54 | 1015.8 |
| 20260506045106 | 16 | 71 | 8.0 | 12.9 | 0.00 | 0.00 | 0.00 | 54 | 1015.8 |
| 20260506045004 | 16 | 65 | 8.0 | 12.9 | 0.00 | 0.00 | 0.00 | 54 | 1015.8 |
| 20260506044909 | 16 | 62 | 8.0 | 12.9 | 0.00 | 0.00 | 0.00 | 53 | 1015.8 |
| 20260506044804 | 16 | 67 | 8.0 | 12.9 | 0.00 | 0.00 | 0.00 | 53 | 1015.8 |
| 20260506044702 | 16 | 60 | 8.0 | 12.9 | 0.00 | 0.00 | 0.00 | 53 | 1015.9 |
| 20260506044603 | 16 | 58 | 8.0 | 12.9 | 0.00 | 0.00 | 0.00 | 53 | 1015.8 |
| 20260506044504 | 16 | 74 | 8.0 | 12.9 | 0.00 | 0.00 | 0.00 | 54 | 1015.9 |
| 20260506044405 | 16 | 74 | 8.0 | 12.9 | 0.00 | 0.00 | 0.00 | 54 | 1015.8 |
| 20260506044303 | 16 | 76 | 6.4 | 12.9 | 0.00 | 0.00 | 0.00 | 54 | 1015.9 |
| 20260506044206 | 15 | 80 | 6.4 | 12.9 | 0.00 | 0.00 | 0.00 | 54 | 1015.9 |
| 20260506044103 | 15 | 89 | 6.4 | 12.9 | 0.00 | 0.00 | 0.00 | 54 | 1015.9 |
| 20260506044003 | 15 | 75 | 6.4 | 12.9 | 0.00 | 0.00 | 0.00 | 54 | 1015.8 |
| 20260506043905 | 15 | 46 | 8.0 | 14.5 | 0.00 | 0.00 | 0.00 | 54 | 1015.8 |
| 20260506043803 | 15 | 58 | 8.0 | 14.5 | 0.00 | 0.00 | 0.00 | 54 | 1015.8 |
| 20260506043704 | 15 | 64 | 8.0 | 16.1 | 0.00 | 0.00 | 0.00 | 54 | 1015.8 |
| 20260506043603 | 15 | 62 | 9.7 | 16.1 | 0.00 | 0.00 | 0.00 | 54 | 1015.8 |
| 20260506043504 | 15 | 72 | 9.7 | 16.1 | 0.00 | 0.00 | 0.00 | 54 | 1015.8 |
| 20260506043405 | 15 | 75 | 11.3 | 16.1 | 0.00 | 0.00 | 0.00 | 54 | 1015.8 |
| 20260506043303 | 15 | 77 | 11.3 | 16.1 | 0.00 | 0.00 | 0.00 | 54 | 1015.7 |
| 20260506043203 | 15 | 74 | 12.9 | 16.1 | 0.00 | 0.00 | 0.00 | 54 | 1015.7 |
| 20260506043058 | 15 | 87 | 12.9 | 17.7 | 0.00 | 0.00 | 0.00 | 55 | 1015.7 |
| 20260506042957 | 15 | 68 | 12.9 | 17.7 | 0.00 | 0.00 | 0.00 | 55 | 1015.6 |
| 20260506042858 | 15 | 89 | 14.5 | 17.7 | 0.00 | 0.00 | 0.00 | 55 | 1015.7 |
| 20260506042757 | 15 | 82 | 14.5 | 17.7 | 0.00 | 0.00 | 0.00 | 55 | 1015.7 |
| 20260506042657 | 15 | 81 | 14.5 | 17.7 | 0.00 | 0.00 | 0.00 | 55 | 1015.7 |
| 20260506042552 | 15 | 83 | 14.5 | 17.7 | 0.00 | 0.00 | 0.00 | 55 | 1015.7 |
| 20260506042452 | 15 | 78 | 12.9 | 17.7 | 0.00 | 0.00 | 0.00 | 55 | 1015.7 |
| 20260506042350 | 15 | 69 | 12.9 | 17.7 | 0.00 | 0.00 | 0.00 | 55 | 1015.7 |
| 20260506042252 | 15 | 76 | 11.3 | 17.7 | 0.00 | 0.00 | 0.00 | 55 | 1015.7 |
| 20260506042152 | 15 | 79 | 9.7 | 17.7 | 0.00 | 0.00 | 0.00 | 55 | 1015.7 |
| 20260506042046 | 15 | 82 | 9.7 | 16.1 | 0.00 | 0.00 | 0.00 | 55 | 1015.7 |
| 20260506041949 | 15 | 79 | 8.0 | 16.1 | 0.00 | 0.00 | 0.00 | 55 | 1015.7 |
| 20260506041846 | 15 | 72 | 6.4 | 16.1 | 0.00 | 0.00 | 0.00 | 55 | 1015.7 |
| 20260506041746 | 15 | 73 | 6.4 | 16.1 | 0.00 | 0.00 | 0.00 | 55 | 1015.7 |
| 20260506041645 | 15 | 83 | 4.8 | 16.1 | 0.00 | 0.00 | 0.00 | 54 | 1015.7 |
| 20260506041540 | 15 | 65 | 3.2 | 11.3 | 0.00 | 0.00 | 0.00 | 53 | 1015.7 |
| 20260506041440 | 15 | 78 | 3.2 | 11.3 | 0.00 | 0.00 | 0.00 | 53 | 1015.7 |
| 20260506041340 | 15 | 78 | 3.2 | 8.0 | 0.00 | 0.00 | 0.00 | 53 | 1015.7 |
| 20260506041238 | 15 | 76 | 3.2 | 6.4 | 0.00 | 0.00 | 0.00 | 53 | 1015.7 |
| 20260506041139 | 15 | 73 | 1.6 | 6.4 | 0.00 | 0.00 | 0.00 | 53 | 1015.7 |
| 20260506041035 | 15 | 76 | 1.6 | 6.4 | 0.00 | 0.00 | 0.00 | 53 | 1015.7 |
| 20260506040933 | 15 | 76 | 1.6 | 6.4 | 0.00 | 0.00 | 0.00 | 53 | 1015.7 |
| 20260506040831 | 15 | 76 | 1.6 | 6.4 | 0.00 | 0.00 | 0.00 | 53 | 1015.6 |
| 20260506040733 | 15 | 76 | 1.6 | 6.4 | 0.00 | 0.00 | 0.00 | 53 | 1015.7 |
| 20260506040633 | 15 | 76 | 1.6 | 6.4 | 0.00 | 0.00 | 0.00 | 53 | 1015.7 |
| 20260506040531 | 15 | 78 | 1.6 | 4.8 | 0.00 | 0.00 | 0.00 | 53 | 1015.7 |
| 20260506040432 | 15 | 76 | 1.6 | 4.8 | 0.00 | 0.00 | 0.00 | 52 | 1015.7 |
| 20260506040331 | 15 | 76 | 1.6 | 4.8 | 0.00 | 0.00 | 0.00 | 52 | 1015.7 |
| 20260506040231 | 15 | 76 | 1.6 | 4.8 | 0.00 | 0.00 | 0.00 | 52 | 1015.6 |
| 20260506040131 | 15 | 76 | 1.6 | 6.4 | 0.00 | 0.00 | 0.00 | 52 | 1015.6 |
| 20260506040033 | 15 | 76 | 1.6 | 6.4 | 0.00 | 0.00 | 0.00 | 52 | 1015.6 |
| 20260506035931 | 15 | 76 | 3.2 | 6.4 | 0.00 | 0.00 | 0.00 | 52 | 1015.5 |
| 20260506035830 | 15 | 76 | 3.2 | 6.4 | 0.00 | 0.00 | 0.00 | 52 | 1015.6 |
| 20260506035737 | 15 | 76 | 3.2 | 6.4 | 0.00 | 0.00 | 0.00 | 52 | 1015.5 |
| 20260506035631 | 15 | 76 | 3.2 | 8.0 | 0.00 | 0.00 | 0.00 | 52 | 1015.5 |
| 20260506035532 | 15 | 76 | 3.2 | 8.0 | 0.00 | 0.00 | 0.00 | 52 | 1015.5 |
| 20260506035430 | 15 | 76 | 4.8 | 9.7 | 0.00 | 0.00 | 0.00 | 52 | 1015.5 |
| 20260506035330 | 15 | 76 | 4.8 | 11.3 | 0.00 | 0.00 | 0.00 | 52 | 1015.5 |
| 20260506035230 | 15 | 75 | 4.8 | 11.3 | 0.00 | 0.00 | 0.00 | 52 | 1015.5 |
| 20260506035130 | 15 | 74 | 6.4 | 11.3 | 0.00 | 0.00 | 0.00 | 52 | 1015.5 |
| 20260506035030 | 15 | 75 | 6.4 | 12.9 | 0.00 | 0.00 | 0.00 | 52 | 1015.5 |
| 20260506034932 | 15 | 79 | 6.4 | 12.9 | 0.00 | 0.00 | 0.00 | 52 | 1015.5 |
| 20260506034830 | 15 | 79 | 8.0 | 12.9 | 0.00 | 0.00 | 0.00 | 52 | 1015.5 |
| 20260506034736 | 15 | 85 | 8.0 | 12.9 | 0.00 | 0.00 | 0.00 | 51 | 1015.4 |
| 20260506034631 | 15 | 77 | 8.0 | 12.9 | 0.00 | 0.00 | 0.00 | 52 | 1015.4 |
| 20260506034531 | 15 | 86 | 8.0 | 12.9 | 0.00 | 0.00 | 0.00 | 51 | 1015.4 |
| 20260506034430 | 15 | 80 | 9.7 | 14.5 | 0.00 | 0.00 | 0.00 | 51 | 1015.4 |
| 20260506034331 | 15 | 81 | 9.7 | 14.5 | 0.00 | 0.00 | 0.00 | 51 | 1015.3 |
| 20260506034230 | 15 | 81 | 9.7 | 14.5 | 0.00 | 0.00 | 0.00 | 51 | 1015.4 |
| 20260506034131 | 15 | 81 | 9.7 | 14.5 | 0.00 | 0.00 | 0.00 | 51 | 1015.5 |
| 20260506034032 | 15 | 79 | 9.7 | 14.5 | 0.00 | 0.00 | 0.00 | 51 | 1015.4 |
| 20260506033930 | 15 | 55 | 11.3 | 16.1 | 0.00 | 0.00 | 0.00 | 51 | 1015.4 |
| 20260506033833 | 15 | 79 | 11.3 | 16.1 | 0.00 | 0.00 | 0.00 | 51 | 1015.4 |
| 20260506033733 | 15 | 72 | 11.3 | 16.1 | 0.00 | 0.00 | 0.00 | 51 | 1015.4 |
| 20260506033631 | 15 | 83 | 12.9 | 16.1 | 0.00 | 0.00 | 0.00 | 51 | 1015.4 |
| 20260506033530 | 15 | 76 | 12.9 | 16.1 | 0.00 | 0.00 | 0.00 | 51 | 1015.4 |
| 20260506033431 | 15 | 85 | 12.9 | 16.1 | 0.00 | 0.00 | 0.00 | 51 | 1015.4 |
| 20260506033330 | 15 | 82 | 12.9 | 16.1 | 0.00 | 0.00 | 0.00 | 51 | 1015.4 |
| 20260506033237 | 15 | 91 | 12.9 | 16.1 | 0.00 | 0.00 | 0.00 | 51 | 1015.4 |
| 20260506033131 | 15 | 72 | 12.9 | 16.1 | 0.00 | 0.00 | 0.00 | 51 | 1015.4 |
| 20260506033030 | 15 | 76 | 12.9 | 16.1 | 0.00 | 0.00 | 0.00 | 51 | 1015.4 |
| 20260506032931 | 15 | 80 | 12.9 | 16.1 | 0.00 | 0.00 | 0.00 | 51 | 1015.3 |
| 20260506032832 | 15 | 74 | 12.9 | 16.1 | 0.00 | 0.00 | 0.00 | 51 | 1015.3 |
| 20260506032735 | 15 | 79 | 12.9 | 16.1 | 0.00 | 0.00 | 0.00 | 51 | 1015.3 |
| 20260506032631 | 15 | 81 | 12.9 | 16.1 | 0.00 | 0.00 | 0.00 | 51 | 1015.3 |
| 20260506032531 | 15 | 79 | 12.9 | 16.1 | 0.00 | 0.00 | 0.00 | 51 | 1015.3 |
| 20260506032431 | 15 | 76 | 12.9 | 16.1 | 0.00 | 0.00 | 0.00 | 51 | 1015.2 |
| 20260506032332 | 15 | 81 | 11.3 | 16.1 | 0.00 | 0.00 | 0.00 | 51 | 1015.2 |
| 20260506032231 | 15 | 79 | 11.3 | 16.1 | 0.00 | 0.00 | 0.00 | 51 | 1015.2 |
| 20260506032132 | 15 | 77 | 11.3 | 14.5 | 0.00 | 0.00 | 0.00 | 51 | 1015.2 |
| 20260506032031 | 15 | 83 | 11.3 | 14.5 | 0.00 | 0.00 | 0.00 | 51 | 1015.2 |
| 20260506031931 | 15 | 67 | 11.3 | 14.5 | 0.00 | 0.00 | 0.00 | 51 | 1015.1 |
| 20260506031831 | 15 | 81 | 11.3 | 14.5 | 0.00 | 0.00 | 0.00 | 51 | 1015.2 |
| 20260506031732 | 15 | 79 | 12.9 | 14.5 | 0.00 | 0.00 | 0.00 | 51 | 1015.1 |
| 20260506031631 | 15 | 80 | 12.9 | 14.5 | 0.00 | 0.00 | 0.00 | 51 | 1015.2 |
| 20260506031533 | 15 | 81 | 12.9 | 14.5 | 0.00 | 0.00 | 0.00 | 51 | 1015.2 |
| 20260506031431 | 15 | 83 | 12.9 | 14.5 | 0.00 | 0.00 | 0.00 | 51 | 1015.1 |
| 20260506031330 | 15 | 79 | 12.9 | 14.5 | 0.00 | 0.00 | 0.00 | 51 | 1015.2 |
| 20260506031232 | 15 | 78 | 12.9 | 14.5 | 0.00 | 0.00 | 0.00 | 51 | 1015.1 |
| 20260506031131 | 15 | 79 | 12.9 | 14.5 | 0.00 | 0.00 | 0.00 | 51 | 1015.2 |
| 20260506031030 | 15 | 79 | 12.9 | 14.5 | 0.00 | 0.00 | 0.00 | 51 | 1015.3 |
| 20260506030931 | 15 | 76 | 12.9 | 14.5 | 0.00 | 0.00 | 0.00 | 52 | 1015.2 |
| 20260506030831 | 15 | 80 | 12.9 | 14.5 | 0.00 | 0.00 | 0.00 | 52 | 1015.2 |
| 20260506030733 | 15 | 78 | 12.9 | 14.5 | 0.00 | 0.00 | 0.00 | 52 | 1015.2 |
| 20260506030632 | 15 | 68 | 11.3 | 14.5 | 0.00 | 0.00 | 0.00 | 52 | 1015.3 |
| 20260506030530 | 15 | 80 | 11.3 | 14.5 | 0.00 | 0.00 | 0.00 | 52 | 1015.2 |
| 20260506030433 | 15 | 83 | 11.3 | 14.5 | 0.00 | 0.00 | 0.00 | 52 | 1015.3 |
| 20260506030331 | 15 | 82 | 9.7 | 14.5 | 0.00 | 0.00 | 0.00 | 52 | 1015.2 |
| 20260506030230 | 15 | 83 | 9.7 | 14.5 | 0.00 | 0.00 | 0.00 | 52 | 1015.2 |
| 20260506030131 | 15 | 76 | 9.7 | 14.5 | 0.00 | 0.00 | 0.00 | 52 | 1015.2 |
| 20260506030030 | 15 | 84 | 8.0 | 14.5 | 0.00 | 0.00 | 0.00 | 52 | 1015.2 |
| 20260506025931 | 15 | 71 | 8.0 | 14.5 | 0.00 | 0.00 | 0.00 | 52 | 1015.2 |
| 20260506025832 | 15 | 79 | 8.0 | 14.5 | 0.00 | 0.00 | 0.00 | 52 | 1015.1 |
| 20260506025733 | 15 | 77 | 8.0 | 14.5 | 0.00 | 0.00 | 0.00 | 53 | 1015.2 |
| 20260506025630 | 15 | 76 | 8.0 | 16.1 | 0.00 | 0.00 | 0.00 | 53 | 1015.1 |
| 20260506025533 | 15 | 72 | 9.7 | 16.1 | 0.00 | 0.00 | 0.00 | 53 | 1015.2 |
| 20260506025431 | 15 | 66 | 9.7 | 16.1 | 0.00 | 0.00 | 0.00 | 53 | 1015.3 |
| 20260506025330 | 15 | 66 | 11.3 | 16.1 | 0.00 | 0.00 | 0.00 | 53 | 1015.3 |
| 20260506025231 | 15 | 84 | 11.3 | 16.1 | 0.00 | 0.00 | 0.00 | 53 | 1015.2 |
| 20260506025130 | 15 | 76 | 11.3 | 16.1 | 0.00 | 0.00 | 0.00 | 53 | 1015.3 |
| 20260506025031 | 15 | 81 | 11.3 | 16.1 | 0.00 | 0.00 | 0.00 | 53 | 1015.2 |
| 20260506024931 | 15 | 59 | 11.3 | 16.1 | 0.00 | 0.00 | 0.00 | 53 | 1015.2 |
| 20260506024830 | 15 | 81 | 9.7 | 16.1 | 0.00 | 0.00 | 0.00 | 53 | 1015.2 |
| 20260506024733 | 15 | 74 | 9.7 | 16.1 | 0.00 | 0.00 | 0.00 | 53 | 1015.1 |
| 20260506024632 | 15 | 78 | 9.7 | 16.1 | 0.00 | 0.00 | 0.00 | 53 | 1015.2 |
| 20260506024530 | 15 | 74 | 8.0 | 16.1 | 0.00 | 0.00 | 0.00 | 53 | 1015.2 |
| 20260506024431 | 15 | 75 | 8.0 | 14.5 | 0.00 | 0.00 | 0.00 | 53 | 1015.2 |
| 20260506024331 | 15 | 80 | 6.4 | 12.9 | 0.00 | 0.00 | 0.00 | 53 | 1015.1 |
| 20260506024231 | 15 | 75 | 6.4 | 12.9 | 0.00 | 0.00 | 0.00 | 53 | 1015.1 |
| 20260506024137 | 14 | 82 | 6.4 | 12.9 | 0.00 | 0.00 | 0.00 | 54 | 1015.2 |
| 20260506024031 | 14 | 76 | 4.8 | 12.9 | 0.00 | 0.00 | 0.00 | 54 | 1015.2 |
| 20260506023932 | 14 | 70 | 4.8 | 12.9 | 0.00 | 0.00 | 0.00 | 54 | 1015.2 |
| 20260506023831 | 14 | 79 | 4.8 | 12.9 | 0.00 | 0.00 | 0.00 | 54 | 1015.2 |
| 20260506023736 | 14 | 79 | 4.8 | 12.9 | 0.00 | 0.00 | 0.00 | 54 | 1015.2 |
| 20260506023634 | 14 | 74 | 4.8 | 12.9 | 0.00 | 0.00 | 0.00 | 54 | 1015.3 |
| 20260506023530 | 14 | 73 | 4.8 | 12.9 | 0.00 | 0.00 | 0.00 | 54 | 1015.3 |
| 20260506023430 | 15 | 79 | 4.8 | 8.0 | 0.00 | 0.00 | 0.00 | 54 | 1015.3 |
| 20260506023331 | 15 | 79 | 4.8 | 8.0 | 0.00 | 0.00 | 0.00 | 54 | 1015.3 |
| 20260506023230 | 15 | 79 | 4.8 | 8.0 | 0.00 | 0.00 | 0.00 | 54 | 1015.3 |
| 20260506023130 | 15 | 79 | 4.8 | 8.0 | 0.00 | 0.00 | 0.00 | 53 | 1015.3 |
| 20260506023031 | 15 | 79 | 4.8 | 8.0 | 0.00 | 0.00 | 0.00 | 53 | 1015.3 |
| 20260506022932 | 15 | 75 | 4.8 | 8.0 | 0.00 | 0.00 | 0.00 | 53 | 1015.3 |
| 20260506022832 | 15 | 76 | 4.8 | 8.0 | 0.00 | 0.00 | 0.00 | 53 | 1015.3 |
| 20260506022733 | 15 | 74 | 3.2 | 6.4 | 0.00 | 0.00 | 0.00 | 53 | 1015.4 |
| 20260506022631 | 15 | 72 | 3.2 | 6.4 | 0.00 | 0.00 | 0.00 | 53 | 1015.3 |
| 20260506022532 | 15 | 75 | 3.2 | 6.4 | 0.00 | 0.00 | 0.00 | 53 | 1015.3 |
| 20260506022431 | 15 | 73 | 3.2 | 6.4 | 0.00 | 0.00 | 0.00 | 53 | 1015.3 |
| 20260506022331 | 15 | 73 | 3.2 | 4.8 | 0.00 | 0.00 | 0.00 | 53 | 1015.3 |
| 20260506022232 | 15 | 73 | 3.2 | 4.8 | 0.00 | 0.00 | 0.00 | 53 | 1015.3 |
| 20260506022131 | 15 | 77 | 3.2 | 4.8 | 0.00 | 0.00 | 0.00 | 53 | 1015.3 |
| 20260506022031 | 15 | 78 | 3.2 | 4.8 | 0.00 | 0.00 | 0.00 | 53 | 1015.3 |
| 20260506021931 | 15 | 78 | 3.2 | 4.8 | 0.00 | 0.00 | 0.00 | 53 | 1015.3 |
| 20260506021833 | 15 | 79 | 1.6 | 4.8 | 0.00 | 0.00 | 0.00 | 53 | 1015.3 |
| 20260506021735 | 15 | 82 | 3.2 | 4.8 | 0.00 | 0.00 | 0.00 | 53 | 1015.4 |
| 20260506021630 | 15 | 82 | 3.2 | 4.8 | 0.00 | 0.00 | 0.00 | 53 | 1015.3 |
| 20260506021532 | 15 | 82 | 3.2 | 4.8 | 0.00 | 0.00 | 0.00 | 52 | 1015.3 |
| 20260506021431 | 15 | 82 | 3.2 | 4.8 | 0.00 | 0.00 | 0.00 | 52 | 1015.3 |
| 20260506021330 | 15 | 82 | 3.2 | 4.8 | 0.00 | 0.00 | 0.00 | 52 | 1015.3 |
| 20260506021232 | 15 | 85 | 3.2 | 6.4 | 0.00 | 0.00 | 0.00 | 52 | 1015.3 |
| 20260506021130 | 15 | 85 | 3.2 | 8.0 | 0.00 | 0.00 | 0.00 | 52 | 1015.2 |
| 20260506021031 | 15 | 85 | 3.2 | 9.7 | 0.00 | 0.00 | 0.00 | 52 | 1015.3 |
| 20260506020930 | 15 | 74 | 4.8 | 11.3 | 0.00 | 0.00 | 0.00 | 52 | 1015.2 |
| 20260506020830 | 15 | 74 | 4.8 | 11.3 | 0.00 | 0.00 | 0.00 | 52 | 1015.2 |
| 20260506020736 | 15 | 74 | 4.8 | 12.9 | 0.00 | 0.00 | 0.00 | 51 | 1015.3 |
| 20260506020631 | 15 | 74 | 6.4 | 12.9 | 0.00 | 0.00 | 0.00 | 51 | 1015.2 |
| 20260506020530 | 15 | 74 | 6.4 | 12.9 | 0.00 | 0.00 | 0.00 | 51 | 1015.2 |
| 20260506020430 | 15 | 74 | 8.0 | 12.9 | 0.00 | 0.00 | 0.00 | 51 | 1015.2 |
| 20260506020331 | 15 | 72 | 8.0 | 12.9 | 0.00 | 0.00 | 0.00 | 51 | 1015.2 |
| 20260506020230 | 15 | 79 | 8.0 | 12.9 | 0.00 | 0.00 | 0.00 | 51 | 1015.2 |
| 20260506020132 | 15 | 83 | 8.0 | 12.9 | 0.00 | 0.00 | 0.00 | 52 | 1015.2 |
| 20260506020031 | 15 | 84 | 8.0 | 12.9 | 0.00 | 0.00 | 0.00 | 51 | 1015.2 |
| 20260506015930 | 15 | 81 | 6.4 | 12.9 | 0.00 | 0.00 | 0.00 | 52 | 1015.1 |
| 20260506015830 | 15 | 66 | 6.4 | 12.9 | 0.00 | 0.00 | 0.00 | 52 | 1015.1 |
| 20260506015734 | 15 | 77 | 6.4 | 12.9 | 0.00 | 0.00 | 0.00 | 52 | 1015.1 |
| 20260506015630 | 15 | 79 | 6.4 | 12.9 | 0.00 | 0.00 | 0.00 | 52 | 1015.1 |
| 20260506015530 | 15 | 79 | 4.8 | 11.3 | 0.00 | 0.00 | 0.00 | 52 | 1015.1 |
| 20260506015430 | 15 | 73 | 4.8 | 11.3 | 0.00 | 0.00 | 0.00 | 52 | 1015.2 |
| 20260506015331 | 15 | 71 | 4.8 | 11.3 | 0.00 | 0.00 | 0.00 | 53 | 1015.1 |
| 20260506015231 | 15 | 81 | 4.8 | 8.0 | 0.00 | 0.00 | 0.00 | 53 | 1015.2 |
| 20260506015132 | 15 | 70 | 3.2 | 8.0 | 0.00 | 0.00 | 0.00 | 53 | 1015.2 |
| 20260506015036 | 15 | 72 | 4.8 | 8.0 | 0.00 | 0.00 | 0.00 | 53 | 1015.1 |
| 20260506014932 | 15 | 72 | 4.8 | 8.0 | 0.00 | 0.00 | 0.00 | 53 | 1015.2 |
| 20260506014830 | 15 | 74 | 4.8 | 8.0 | 0.00 | 0.00 | 0.00 | 53 | 1015.1 |
| 20260506014732 | 15 | 70 | 4.8 | 6.4 | 0.00 | 0.00 | 0.00 | 53 | 1015.2 |
| 20260506014632 | 15 | 76 | 4.8 | 6.4 | 0.00 | 0.00 | 0.00 | 53 | 1015.2 |
| 20260506014533 | 15 | 72 | 4.8 | 6.4 | 0.00 | 0.00 | 0.00 | 53 | 1015.2 |
| 20260506014432 | 15 | 70 | 4.8 | 6.4 | 0.00 | 0.00 | 0.00 | 52 | 1015.2 |
| 20260506014330 | 15 | 65 | 4.8 | 6.4 | 0.00 | 0.00 | 0.00 | 52 | 1015.2 |
| 20260506014230 | 15 | 75 | 4.8 | 6.4 | 0.00 | 0.00 | 0.00 | 52 | 1015.2 |
| 20260506014132 | 15 | 76 | 4.8 | 6.4 | 0.00 | 0.00 | 0.00 | 52 | 1015.2 |
| 20260506014031 | 15 | 62 | 4.8 | 6.4 | 0.00 | 0.00 | 0.00 | 52 | 1015.2 |
| 20260506013933 | 15 | 74 | 3.2 | 6.4 | 0.00 | 0.00 | 0.00 | 52 | 1015.2 |
| 20260506013830 | 15 | 77 | 3.2 | 6.4 | 0.00 | 0.00 | 0.00 | 52 | 1015.2 |
| 20260506013734 | 15 | 79 | 3.2 | 6.4 | 0.00 | 0.00 | 0.00 | 52 | 1015.2 |
| 20260506013631 | 15 | 76 | 3.2 | 6.4 | 0.00 | 0.00 | 0.00 | 52 | 1015.2 |
| 20260506013531 | 15 | 77 | 4.8 | 6.4 | 0.00 | 0.00 | 0.00 | 52 | 1015.2 |
| 20260506013430 | 15 | 79 | 4.8 | 6.4 | 0.00 | 0.00 | 0.00 | 52 | 1015.2 |
| 20260506013332 | 15 | 79 | 4.8 | 8.0 | 0.00 | 0.00 | 0.00 | 52 | 1015.2 |
| 20260506013230 | 15 | 72 | 4.8 | 11.3 | 0.00 | 0.00 | 0.00 | 51 | 1015.1 |
| 20260506013131 | 15 | 72 | 4.8 | 11.3 | 0.00 | 0.00 | 0.00 | 52 | 1015.2 |
| 20260506013030 | 15 | 72 | 6.4 | 12.9 | 0.00 | 0.00 | 0.00 | 51 | 1015.2 |
| 20260506012933 | 15 | 72 | 6.4 | 12.9 | 0.00 | 0.00 | 0.00 | 51 | 1015.2 |
| 20260506012831 | 15 | 70 | 6.4 | 12.9 | 0.00 | 0.00 | 0.00 | 51 | 1015.2 |
| 20260506012734 | 15 | 69 | 6.4 | 12.9 | 0.00 | 0.00 | 0.00 | 51 | 1015.2 |
| 20260506012630 | 15 | 73 | 6.4 | 12.9 | 0.00 | 0.00 | 0.00 | 51 | 1015.2 |
| 20260506012530 | 15 | 76 | 6.4 | 12.9 | 0.00 | 0.00 | 0.00 | 51 | 1015.2 |
| 20260506012430 | 15 | 76 | 6.4 | 12.9 | 0.00 | 0.00 | 0.00 | 51 | 1015.1 |
| 20260506012330 | 15 | 70 | 6.4 | 12.9 | 0.00 | 0.00 | 0.00 | 51 | 1015.2 |
| 20260506012231 | 15 | 78 | 6.4 | 12.9 | 0.00 | 0.00 | 0.00 | 51 | 1015.2 |
| 20260506012131 | 15 | 76 | 4.8 | 12.9 | 0.00 | 0.00 | 0.00 | 51 | 1015.2 |
| 20260506012031 | 15 | 74 | 4.8 | 12.9 | 0.00 | 0.00 | 0.00 | 52 | 1015.2 |
| 20260506011933 | 15 | 61 | 4.8 | 9.7 | 0.00 | 0.00 | 0.00 | 52 | 1015.1 |
| 20260506011831 | 15 | 73 | 4.8 | 8.0 | 0.00 | 0.00 | 0.00 | 52 | 1015.1 |
| 20260506011733 | 15 | 79 | 4.8 | 8.0 | 0.00 | 0.00 | 0.00 | 52 | 1015.2 |
| 20260506011632 | 15 | 78 | 4.8 | 8.0 | 0.00 | 0.00 | 0.00 | 52 | 1015.1 |
| 20260506011529 | 15 | 69 | 4.8 | 11.3 | 0.00 | 0.00 | 0.00 | 52 | 1015.1 |
| 20260506011428 | 15 | 78 | 4.8 | 11.3 | 0.00 | 0.00 | 0.00 | 52 | 1015.1 |
| 20260506011330 | 15 | 76 | 6.4 | 11.3 | 0.00 | 0.00 | 0.00 | 52 | 1015.1 |
| 20260506011230 | 15 | 76 | 6.4 | 11.3 | 0.00 | 0.00 | 0.00 | 52 | 1015.1 |
| 20260506011128 | 15 | 76 | 6.4 | 11.3 | 0.00 | 0.00 | 0.00 | 52 | 1015.0 |
| 20260506011020 | 15 | 81 | 6.4 | 11.3 | 0.00 | 0.00 | 0.00 | 52 | 1015.1 |
| 20260506010921 | 15 | 78 | 6.4 | 11.3 | 0.00 | 0.00 | 0.00 | 52 | 1015.1 |
| 20260506010820 | 15 | 79 | 6.4 | 11.3 | 0.00 | 0.00 | 0.00 | 52 | 1015.1 |
| 20260506010722 | 15 | 75 | 6.4 | 11.3 | 0.00 | 0.00 | 0.00 | 52 | 1015.1 |
| 20260506010621 | 15 | 81 | 4.8 | 11.3 | 0.00 | 0.00 | 0.00 | 52 | 1015.1 |
| 20260506010514 | 15 | 75 | 4.8 | 8.0 | 0.00 | 0.00 | 0.00 | 52 | 1015.1 |
| 20260506010416 | 15 | 79 | 4.8 | 8.0 | 0.00 | 0.00 | 0.00 | 52 | 1015.1 |
| 20260506010315 | 15 | 66 | 4.8 | 8.0 | 0.00 | 0.00 | 0.00 | 52 | 1015.1 |
| 20260506010216 | 15 | 77 | 4.8 | 8.0 | 0.00 | 0.00 | 0.00 | 52 | 1015.1 |
| 20260506010116 | 15 | 73 | 3.2 | 8.0 | 0.00 | 0.00 | 0.00 | 52 | 1015.1 |
| 20260506010011 | 15 | 76 | 3.2 | 8.0 | 0.00 | 0.00 | 0.00 | 52 | 1015.1 |
| 20260506005912 | 15 | 74 | 3.2 | 8.0 | 0.00 | 0.00 | 0.00 | 52 | 1015.1 |
| 20260506005810 | 15 | 74 | 3.2 | 6.4 | 0.00 | 0.00 | 0.00 | 52 | 1015.1 |
| 20260506005710 | 15 | 72 | 3.2 | 6.4 | 0.00 | 0.00 | 0.00 | 52 | 1015.1 |
| 20260506005611 | 15 | 74 | 3.2 | 6.4 | 0.00 | 0.00 | 0.00 | 52 | 1015.2 |
| 20260506005510 | 15 | 74 | 3.2 | 6.4 | 0.00 | 0.00 | 0.00 | 51 | 1015.1 |
| 20260506005412 | 15 | 74 | 3.2 | 6.4 | 0.00 | 0.00 | 0.00 | 51 | 1015.1 |
| 20260506005309 | 15 | 74 | 3.2 | 6.4 | 0.00 | 0.00 | 0.00 | 51 | 1015.0 |
| 20260506005210 | 15 | 75 | 4.8 | 8.0 | 0.00 | 0.00 | 0.00 | 51 | 1015.0 |
| 20260506005110 | 15 | 75 | 4.8 | 11.3 | 0.00 | 0.00 | 0.00 | 51 | 1015.0 |
| 20260506005010 | 15 | 68 | 4.8 | 11.3 | 0.00 | 0.00 | 0.00 | 51 | 1015.0 |
| 20260506004908 | 15 | 68 | 4.8 | 11.3 | 0.00 | 0.00 | 0.00 | 51 | 1015.0 |
| 20260506004809 | 15 | 68 | 4.8 | 12.9 | 0.00 | 0.00 | 0.00 | 51 | 1015.0 |
| 20260506004708 | 15 | 66 | 6.4 | 12.9 | 0.00 | 0.00 | 0.00 | 51 | 1015.0 |
| 20260506004608 | 15 | 66 | 6.4 | 12.9 | 0.00 | 0.00 | 0.00 | 51 | 1015.0 |
| 20260506004507 | 15 | 65 | 6.4 | 12.9 | 0.00 | 0.00 | 0.00 | 51 | 1015.0 |
| 20260506004404 | 15 | 59 | 6.4 | 12.9 | 0.00 | 0.00 | 0.00 | 51 | 1015.0 |
| 20260506004305 | 15 | 59 | 6.4 | 12.9 | 0.00 | 0.00 | 0.00 | 51 | 1015.0 |
| 20260506004207 | 15 | 75 | 6.4 | 12.9 | 0.00 | 0.00 | 0.00 | 51 | 1015.0 |
| 20260506004104 | 15 | 76 | 6.4 | 12.9 | 0.00 | 0.00 | 0.00 | 51 | 1015.0 |
| 20260506004003 | 15 | 79 | 6.4 | 12.9 | 0.00 | 0.00 | 0.00 | 51 | 1015.0 |
| 20260506003905 | 15 | 77 | 4.8 | 12.9 | 0.00 | 0.00 | 0.00 | 51 | 1015.0 |
| 20260506003803 | 15 | 62 | 4.8 | 11.3 | 0.00 | 0.00 | 0.00 | 51 | 1015.0 |
| 20260506003703 | 15 | 68 | 3.2 | 11.3 | 0.00 | 0.00 | 0.00 | 51 | 1015.0 |
| 20260506003603 | 15 | 94 | 3.2 | 11.3 | 0.00 | 0.00 | 0.00 | 51 | 1015.0 |
| 20260506003504 | 16 | 83 | 1.6 | 11.3 | 0.00 | 0.00 | 0.00 | 51 | 1015.0 |
| 20260506003404 | 16 | 76 | 1.6 | 6.4 | 0.00 | 0.00 | 0.00 | 51 | 1015.0 |
| 20260506003302 | 16 | 74 | 1.6 | 6.4 | 0.00 | 0.00 | 0.00 | 51 | 1015.0 |
| 20260506003205 | 16 | 75 | 1.6 | 6.4 | 0.00 | 0.00 | 0.00 | 51 | 1015.0 |
| 20260506003103 | 16 | 75 | 0.0 | 6.4 | 0.00 | 0.00 | 0.00 | 51 | 1015.0 |
| 20260506003005 | 16 | 74 | 0.0 | 3.2 | 0.00 | 0.00 | 0.00 | 51 | 1015.0 |
| 20260506002904 | 16 | 74 | 0.0 | 3.2 | 0.00 | 0.00 | 0.00 | 51 | 1015.0 |
| 20260506002802 | 16 | 74 | 1.6 | 4.8 | 0.00 | 0.00 | 0.00 | 51 | 1015.1 |
| 20260506002703 | 16 | 74 | 1.6 | 4.8 | 0.00 | 0.00 | 0.00 | 51 | 1015.0 |
| 20260506002602 | 16 | 74 | 1.6 | 4.8 | 0.00 | 0.00 | 0.00 | 51 | 1015.0 |
| 20260506002503 | 16 | 74 | 1.6 | 4.8 | 0.00 | 0.00 | 0.00 | 51 | 1015.0 |
| 20260506002405 | 16 | 74 | 1.6 | 4.8 | 0.00 | 0.00 | 0.00 | 51 | 1015.1 |
| 20260506002306 | 16 | 74 | 3.2 | 6.4 | 0.00 | 0.00 | 0.00 | 51 | 1015.0 |
| 20260506002203 | 16 | 74 | 3.2 | 8.0 | 0.00 | 0.00 | 0.00 | 51 | 1015.0 |
| 20260506002102 | 16 | 74 | 3.2 | 9.7 | 0.00 | 0.00 | 0.00 | 51 | 1015.0 |
| 20260506002003 | 16 | 74 | 4.8 | 9.7 | 0.00 | 0.00 | 0.00 | 51 | 1015.0 |
| 20260506001903 | 16 | 74 | 4.8 | 9.7 | 0.00 | 0.00 | 0.00 | 51 | 1014.9 |
| 20260506001803 | 16 | 74 | 6.4 | 9.7 | 0.00 | 0.00 | 0.00 | 51 | 1014.9 |
| 20260506001703 | 16 | 72 | 6.4 | 11.3 | 0.00 | 0.00 | 0.00 | 50 | 1014.9 |
| 20260506001603 | 16 | 75 | 6.4 | 11.3 | 0.00 | 0.00 | 0.00 | 50 | 1015.0 |
| 20260506001503 | 16 | 76 | 6.4 | 11.3 | 0.00 | 0.00 | 0.00 | 50 | 1014.9 |
| 20260506001406 | 16 | 68 | 8.0 | 11.3 | 0.00 | 0.00 | 0.00 | 50 | 1014.9 |
| 20260506001303 | 16 | 47 | 8.0 | 11.3 | 0.00 | 0.00 | 0.00 | 50 | 1014.9 |
| 20260506001203 | 16 | 78 | 8.0 | 11.3 | 0.00 | 0.00 | 0.00 | 50 | 1014.9 |
| 20260506001104 | 16 | 76 | 8.0 | 11.3 | 0.00 | 0.00 | 0.00 | 50 | 1014.9 |
| 20260506001004 | 16 | 74 | 8.0 | 11.3 | 0.00 | 0.00 | 0.00 | 50 | 1014.9 |
| 20260506000903 | 16 | 76 | 8.0 | 11.3 | 0.00 | 0.00 | 0.00 | 50 | 1015.0 |
| 20260506000802 | 16 | 87 | 8.0 | 11.3 | 0.00 | 0.00 | 0.00 | 50 | 1015.0 |
| 20260506000702 | 16 | 82 | 8.0 | 12.9 | 0.00 | 0.00 | 0.00 | 50 | 1014.9 |
| 20260506000605 | 16 | 73 | 9.7 | 12.9 | 0.00 | 0.00 | 0.00 | 50 | 1015.0 |
| 20260506000502 | 16 | 76 | 8.0 | 12.9 | 0.00 | 0.00 | 0.00 | 50 | 1015.0 |
| 20260506000403 | 16 | 76 | 8.0 | 12.9 | 0.00 | 0.00 | 0.00 | 50 | 1015.0 |
| 20260506000302 | 16 | 79 | 8.0 | 12.9 | 0.00 | 0.00 | 0.00 | 50 | 1015.0 |
| 20260506000204 | 16 | 78 | 8.0 | 12.9 | 0.00 | 0.00 | 0.00 | 50 | 1014.9 |
| 20260506000105 | 16 | 81 | 6.4 | 12.9 | 0.00 | 0.00 | 0.00 | 50 | 1015.0 |
| 20260506000002 | 16 | 76 | 6.4 | 12.9 | 0.00 | 0.00 | 0.00 | 50 | 1015.0 |
| 20260505235905 | 16 | 78 | 6.4 | 12.9 | 0.00 | 0.00 | 0.00 | 50 | 1014.9 |
| 20260505235803 | 16 | 81 | 4.8 | 12.9 | 0.00 | 0.00 | 0.00 | 50 | 1015.0 |
| 20260505235703 | 16 | 81 | 4.8 | 12.9 | 0.00 | 0.00 | 0.00 | 50 | 1015.0 |
| 20260505235603 | 16 | 78 | 4.8 | 11.3 | 0.00 | 0.00 | 0.00 | 50 | 1015.0 |